Observation data for Happy on 11/09/2019      Previous  Date       Current Mesonet Observations  Soil Data  Daily Summary Page  Observations in Plain Language
KHA2 090600Z 28007KT 04/03 A3027 RMK A01 T00440030  RH  091%=      5-min Rain = 0
KHA2 090601Z 27006KT 04/03 A3027 RMK A01 T00430029  RH  091%=      5-min Rain = 0
KHA2 090602Z 28006KT 04/03 A3027 RMK A01 T00430029  RH  091%=      5-min Rain = 0
KHA2 090603Z 28007KT 04/03 A3027 RMK A01 T00420030  RH  091%=      5-min Rain = 0
KHA2 090604Z 28007KT 04/03 A3027 RMK A01 T00420029  RH  092%=      5-min Rain = 0
KHA2 090605Z 28008KT 04/03 A3027 RMK A01 T00430031  RH  092%=      5-min Rain = 0
KHA2 090606Z 28008KT 04/03 A3027 RMK A01 T00440032  RH  092%=      5-min Rain = 0
KHA2 090607Z 28008KT 04/03 A3027 RMK A01 T00440032  RH  092%=      5-min Rain = 0
KHA2 090608Z 28008KT 05/04 A3027 RMK A01 T00460035  RH  093%=      5-min Rain = 0
KHA2 090609Z 27008KT 05/04 A3027 RMK A01 T00480037  RH  093%=      5-min Rain = 0
KHA2 090610Z 28007KT 05/04 A3027 RMK A01 T00490036  RH  092%=      5-min Rain = 0
KHA2 090611Z 27006KT 05/04 A3027 RMK A01 T00480035  RH  091%=      5-min Rain = 0
KHA2 090612Z 27005KT 05/03 A3027 RMK A01 T00470033  RH  091%=      5-min Rain = 0
KHA2 090613Z 27006KT 05/03 A3027 RMK A01 T00460032  RH  091%=      5-min Rain = 0
KHA2 090614Z 26006KT 05/03 A3027 RMK A01 T00450032  RH  091%=      5-min Rain = 0
KHA2 090615Z 27007KT 05/03 A3027 RMK A01 T00450033  RH  092%=      5-min Rain = 0
KHA2 090616Z 27007KT 05/03 A3027 RMK A01 T00450032  RH  091%=      5-min Rain = 0
KHA2 090617Z 27007KT 04/03 A3027 RMK A01 T00440032  RH  091%=      5-min Rain = 0
KHA2 090618Z 27007KT 04/03 A3027 RMK A01 T00440032  RH  092%=      5-min Rain = 0
KHA2 090619Z 28007KT 04/03 A3027 RMK A01 T00440031  RH  092%=      5-min Rain = 0
KHA2 090620Z 27006KT 04/03 A3027 RMK A01 T00430031  RH  092%=      5-min Rain = 0
KHA2 090621Z 28007KT 04/03 A3027 RMK A01 T00420030  RH  092%=      5-min Rain = 0
KHA2 090622Z 27007KT 04/03 A3027 RMK A01 T00420031  RH  092%=      5-min Rain = 0
KHA2 090623Z 28006KT 04/03 A3027 RMK A01 T00420030  RH  092%=      5-min Rain = 0
KHA2 090624Z 28007KT 04/03 A3027 RMK A01 T00420031  RH  093%=      5-min Rain = 0
KHA2 090625Z 28007KT 04/03 A3027 RMK A01 T00430033  RH  093%=      5-min Rain = 0
KHA2 090626Z 28007KT 04/03 A3027 RMK A01 T00440034  RH  093%=      5-min Rain = 0
KHA2 090627Z 28008KT 04/03 A3027 RMK A01 T00440033  RH  093%=      5-min Rain = 0
KHA2 090628Z 28008KT 05/03 A3027 RMK A01 T00450034  RH  093%=      5-min Rain = 0
KHA2 090629Z 27007KT 05/03 A3027 RMK A01 T00450033  RH  092%=      5-min Rain = 0
KHA2 090630Z 26006KT 04/03 A3027 RMK A01 T00440033  RH  092%=      5-min Rain = 0
KHA2 090631Z 26004KT 04/03 A3027 RMK A01 T00430031  RH  092%=      5-min Rain = 0
KHA2 090632Z 27004KT 04/03 A3027 RMK A01 T00420030  RH  092%=      5-min Rain = 0
KHA2 090633Z 27004KT 04/03 A3027 RMK A01 T00400028  RH  092%=      5-min Rain = 0
KHA2 090634Z 27004KT 04/03 A3027 RMK A01 T00390028  RH  092%=      5-min Rain = 0
KHA2 090635Z 27004KT 04/03 A3027 RMK A01 T00390028  RH  092%=      5-min Rain = 0
KHA2 090636Z 28004KT 04/03 A3027 RMK A01 T00390028  RH  093%=      5-min Rain = 0
KHA2 090637Z 28005KT 04/03 A3027 RMK A01 T00380028  RH  093%=      5-min Rain = 0
KHA2 090638Z 28005KT 04/03 A3027 RMK A01 T00380029  RH  093%=      5-min Rain = 0
KHA2 090639Z 28006KT 04/03 A3027 RMK A01 T00390030  RH  094%=      5-min Rain = 0
KHA2 090640Z 27006KT 04/03 A3027 RMK A01 T00400031  RH  094%=      5-min Rain = 0
KHA2 090641Z 28007KT 04/03 A3027 RMK A01 T00400031  RH  094%=      5-min Rain = 0
KHA2 090642Z 28006KT 04/03 A3027 RMK A01 T00400031  RH  094%=      5-min Rain = 0
KHA2 090643Z 28006KT 04/03 A3027 RMK A01 T00400031  RH  094%=      5-min Rain = 0
KHA2 090644Z 28005KT 04/03 A3027 RMK A01 T00400030  RH  093%=      5-min Rain = 0
KHA2 090645Z 28005KT 04/03 A3027 RMK A01 T00400030  RH  093%=      5-min Rain = 0
KHA2 090646Z 28005KT 04/03 A3027 RMK A01 T00390030  RH  093%=      5-min Rain = 0
KHA2 090647Z 28004KT 04/03 A3027 RMK A01 T00390029  RH  093%=      5-min Rain = 0
KHA2 090648Z 28005KT 04/03 A3027 RMK A01 T00380029  RH  093%=      5-min Rain = 0
KHA2 090649Z 28004KT 04/03 A3027 RMK A01 T00390029  RH  094%=      5-min Rain = 0
KHA2 090650Z 28004KT 04/03 A3027 RMK A01 T00380028  RH  094%=      5-min Rain = 0
KHA2 090651Z 28004KT 04/03 A3027 RMK A01 T00370027  RH  093%=      5-min Rain = 0
KHA2 090652Z 28004KT 04/03 A3027 RMK A01 T00360026  RH  093%=      5-min Rain = 0
KHA2 090653Z 29005KT 04/03 A3027 RMK A01 T00360027  RH  094%=      5-min Rain = 0
KHA2 090654Z 29005KT 04/03 A3027 RMK A01 T00360027  RH  094%=      5-min Rain = 0
KHA2 090655Z 28005KT 04/03 A3027 RMK A01 T00360027  RH  094%=      5-min Rain = 0
KHA2 090656Z 27005KT 04/03 A3027 RMK A01 T00350027  RH  094%=      5-min Rain = 0
KHA2 090657Z 27006KT 04/03 A3027 RMK A01 T00350026  RH  094%=      5-min Rain = 0
KHA2 090658Z 27007KT 04/03 A3027 RMK A01 T00350026  RH  094%=      5-min Rain = 0
KHA2 090659Z 27006KT 04/03 A3027 RMK A01 T00350026  RH  094%=      5-min Rain = 0
KHA2 090700Z 28005KT 04/03 A3027 RMK A01 T00350028  RH  095%=      5-min Rain = 0
KHA2 090701Z 27005KT 03/03 A3027 RMK A01 T00340026  RH  094%=      5-min Rain = 0
KHA2 090702Z 26004KT 03/02 A3027 RMK A01 T00330024  RH  094%=      5-min Rain = 0
KHA2 090703Z 26004KT 03/02 A3027 RMK A01 T00300021  RH  094%=      5-min Rain = 0
KHA2 090704Z 26004KT 03/02 A3027 RMK A01 T00280018  RH  093%=      5-min Rain = 0
KHA2 090705Z 26004KT 03/02 A3027 RMK A01 T00270017  RH  094%=      5-min Rain = 0
KHA2 090706Z 25005KT 03/02 A3027 RMK A01 T00250015  RH  094%=      5-min Rain = 0
KHA2 090707Z 25006KT 02/01 A3027 RMK A01 T00230014  RH  094%=      5-min Rain = 0
KHA2 090708Z 25007KT 02/01 A3027 RMK A01 T00220013  RH  094%=      5-min Rain = 0
KHA2 090709Z 26007KT 02/01 A3027 RMK A01 T00210014  RH  095%=      5-min Rain = 0
KHA2 090710Z 25007KT 02/01 A3027 RMK A01 T00210014  RH  095%=      5-min Rain = 0
KHA2 090711Z 26007KT 02/02 A3027 RMK A01 T00210015  RH  095%=      5-min Rain = 0
KHA2 090712Z 26007KT 02/02 A3027 RMK A01 T00210015  RH  096%=      5-min Rain = 0
KHA2 090713Z 26007KT 02/02 A3027 RMK A01 T00210015  RH  096%=      5-min Rain = 0
KHA2 090714Z 27007KT 02/02 A3027 RMK A01 T00210015  RH  096%=      5-min Rain = 0
KHA2 090715Z 27007KT 02/02 A3027 RMK A01 T00220016  RH  096%=      5-min Rain = 0
KHA2 090721Z 28008KT 03/02 A3026 RMK A01 T00260021  RH  097%=      5-min Rain = 0
KHA2 090722Z 28009KT 03/03 A3026 RMK A01 T00290025  RH  097%=      5-min Rain = 0
KHA2 090723Z 28008KT 03/03 A3026 RMK A01 T00310027  RH  097%=      5-min Rain = 0
KHA2 090724Z 28009KT 03/03 A3026 RMK A01 T00330029  RH  097%=      5-min Rain = 0
KHA2 090725Z 28009KT 04/03 A3026 RMK A01 T00350030  RH  097%=      5-min Rain = 0
KHA2 090726Z 28009KT 04/03 A3026 RMK A01 T00350030  RH  096%=      5-min Rain = 0
KHA2 090727Z 28009KT 04/03 A3026 RMK A01 T00370031  RH  096%=      5-min Rain = 0
KHA2 090728Z 28009KT 04/03 A3026 RMK A01 T00380032  RH  096%=      5-min Rain = 0
KHA2 090729Z 28009KT 04/03 A3026 RMK A01 T00380032  RH  095%=      5-min Rain = 0
KHA2 090730Z 28008KT 04/03 A3026 RMK A01 T00390032  RH  095%=      5-min Rain = 0
KHA2 090731Z 28008KT 04/03 A3026 RMK A01 T00400032  RH  095%=      5-min Rain = 0
KHA2 090732Z 28008KT 04/03 A3026 RMK A01 T00400032  RH  094%=      5-min Rain = 0
KHA2 090733Z 29007KT 04/03 A3026 RMK A01 T00400032  RH  094%=      5-min Rain = 0
KHA2 090734Z 28008KT 04/03 A3026 RMK A01 T00400031  RH  094%=      5-min Rain = 0
KHA2 090735Z 29007KT 04/03 A3026 RMK A01 T00400031  RH  094%=      5-min Rain = 0
KHA2 090736Z 29007KT 04/03 A3026 RMK A01 T00400031  RH  094%=      5-min Rain = 0
KHA2 090737Z 29006KT 04/03 A3026 RMK A01 T00410031  RH  094%=      5-min Rain = 0
KHA2 090738Z 29006KT 04/03 A3026 RMK A01 T00410031  RH  093%=      5-min Rain = 0
KHA2 090739Z 29006KT 04/03 A3026 RMK A01 T00410031  RH  093%=      5-min Rain = 0
KHA2 090740Z 29005KT 04/03 A3026 RMK A01 T00410031  RH  093%=      5-min Rain = 0
KHA2 090741Z 29005KT 04/03 A3026 RMK A01 T00410031  RH  093%=      5-min Rain = 0
KHA2 090742Z 30006KT 04/03 A3026 RMK A01 T00400029  RH  093%=      5-min Rain = 0
KHA2 090743Z 30007KT 04/03 A3026 RMK A01 T00400029  RH  093%=      5-min Rain = 0
KHA2 090744Z 30008KT 04/03 A3026 RMK A01 T00400030  RH  093%=      5-min Rain = 0
KHA2 090745Z 29007KT 04/03 A3026 RMK A01 T00400030  RH  093%=      5-min Rain = 0
KHA2 090746Z 29008KT 04/03 A3026 RMK A01 T00400029  RH  093%=      5-min Rain = 0
KHA2 090747Z 29007KT 04/03 A3026 RMK A01 T00390029  RH  093%=      5-min Rain = 0
KHA2 090748Z 29007KT 04/03 A3026 RMK A01 T00410031  RH  093%=      5-min Rain = 0
KHA2 090749Z 29006KT 04/03 A3026 RMK A01 T00410031  RH  093%=      5-min Rain = 0
KHA2 090750Z 29005KT 04/03 A3026 RMK A01 T00410030  RH  093%=      5-min Rain = 0
KHA2 090751Z 29005KT 04/03 A3026 RMK A01 T00400029  RH  093%=      5-min Rain = 0
KHA2 090752Z 29005KT 04/03 A3026 RMK A01 T00400029  RH  093%=      5-min Rain = 0
KHA2 090753Z 30007KT 04/03 A3026 RMK A01 T00400029  RH  093%=      5-min Rain = 0
KHA2 090754Z 30008KT 04/03 A3026 RMK A01 T00400030  RH  093%=      5-min Rain = 0
KHA2 090755Z 29007KT 04/03 A3026 RMK A01 T00400029  RH  093%=      5-min Rain = 0
KHA2 090756Z 29007KT 04/03 A3026 RMK A01 T00390028  RH  092%=      5-min Rain = 0
KHA2 090757Z 30006KT 04/03 A3026 RMK A01 T00370025  RH  092%=      5-min Rain = 0
KHA2 090758Z 30008KT 04/02 A3026 RMK A01 T00360024  RH  092%=      5-min Rain = 0
KHA2 090759Z 30007KT 04/02 A3026 RMK A01 T00350024  RH  092%=      5-min Rain = 0
KHA2 090800Z 30006KT 03/02 A3026 RMK A01 T00330021  RH  092%=      5-min Rain = 0
KHA2 090801Z 31006KT 03/02 A3026 RMK A01 T00300019  RH  092%=      5-min Rain = 0
KHA2 090802Z 30006KT 03/02 A3026 RMK A01 T00290017  RH  092%=      5-min Rain = 0
KHA2 090803Z 30006KT 03/02 A3026 RMK A01 T00280018  RH  093%=      5-min Rain = 0
KHA2 090804Z 30005KT 03/02 A3026 RMK A01 T00280018  RH  093%=      5-min Rain = 0
KHA2 090805Z 30005KT 03/02 A3026 RMK A01 T00270018  RH  094%=      5-min Rain = 0
KHA2 090806Z 30005KT 03/02 A3026 RMK A01 T00270018  RH  094%=      5-min Rain = 0
KHA2 090807Z 30006KT 03/02 A3026 RMK A01 T00270018  RH  094%=      5-min Rain = 0
KHA2 090808Z 29006KT 03/02 A3026 RMK A01 T00270019  RH  094%=      5-min Rain = 0
KHA2 090809Z 29007KT 03/02 A3026 RMK A01 T00270020  RH  095%=      5-min Rain = 0
KHA2 090810Z 29007KT 03/02 A3026 RMK A01 T00290022  RH  095%=      5-min Rain = 0
KHA2 090811Z 29006KT 03/02 A3026 RMK A01 T00300023  RH  095%=      5-min Rain = 0
KHA2 090812Z 29006KT 03/02 A3026 RMK A01 T00300023  RH  095%=      5-min Rain = 0
KHA2 090813Z 29005KT 03/02 A3026 RMK A01 T00300022  RH  095%=      5-min Rain = 0
KHA2 090814Z 29005KT 03/02 A3026 RMK A01 T00300022  RH  094%=      5-min Rain = 0
KHA2 090815Z 29005KT 03/02 A3026 RMK A01 T00290021  RH  094%=      5-min Rain = 0
KHA2 090816Z 29006KT 03/02 A3026 RMK A01 T00280020  RH  094%=      5-min Rain = 0
KHA2 090817Z 29006KT 03/02 A3026 RMK A01 T00280020  RH  094%=      5-min Rain = 0
KHA2 090818Z 29007KT 03/02 A3026 RMK A01 T00300022  RH  095%=      5-min Rain = 0
KHA2 090819Z 30010KT 03/02 A3026 RMK A01 T00320024  RH  095%=      5-min Rain = 0
KHA2 090820Z 29011KT 04/03 A3026 RMK A01 T00360029  RH  095%=      5-min Rain = 0
KHA2 090821Z 29011KT 04/03 A3026 RMK A01 T00380031  RH  095%=      5-min Rain = 0
KHA2 090822Z 29009KT 04/03 A3026 RMK A01 T00390031  RH  094%=      5-min Rain = 0
KHA2 090823Z 30010KT 04/03 A3026 RMK A01 T00390030  RH  094%=      5-min Rain = 0
KHA2 090824Z 29010KT 04/03 A3026 RMK A01 T00390029  RH  093%=      5-min Rain = 0
KHA2 090825Z 29010KT 04/03 A3025 RMK A01 T00400029  RH  093%=      5-min Rain = 0
KHA2 090826Z 30009KT 04/03 A3025 RMK A01 T00400030  RH  093%=      5-min Rain = 0
KHA2 090827Z 30010KT 04/03 A3025 RMK A01 T00400029  RH  093%=      5-min Rain = 0
KHA2 090828Z 30009KT 04/03 A3025 RMK A01 T00400029  RH  093%=      5-min Rain = 0
KHA2 090829Z 30009KT 04/03 A3025 RMK A01 T00400029  RH  093%=      5-min Rain = 0
KHA2 090830Z 30009KT 04/03 A3025 RMK A01 T00400029  RH  092%=      5-min Rain = 0
KHA2 090831Z 30010KT 04/03 A3025 RMK A01 T00390027  RH  092%=      5-min Rain = 0
KHA2 090832Z 30009KT 04/03 A3025 RMK A01 T00390029  RH  093%=      5-min Rain = 0
KHA2 090833Z 29009KT 04/03 A3025 RMK A01 T00410030  RH  093%=      5-min Rain = 0
KHA2 090834Z 29011KT 04/03 A3025 RMK A01 T00410030  RH  092%=      5-min Rain = 0
KHA2 090835Z 29011KT 04/03 A3025 RMK A01 T00410030  RH  092%=      5-min Rain = 0
KHA2 090836Z 29012KT 04/03 A3025 RMK A01 T00430032  RH  093%=      5-min Rain = 0
KHA2 090837Z 29012KT 05/03 A3025 RMK A01 T00450034  RH  092%=      5-min Rain = 0
KHA2 090838Z 29012KT 05/04 A3025 RMK A01 T00480037  RH  092%=      5-min Rain = 0
KHA2 090839Z 29013KT 05/04 A3025 RMK A01 T00510038  RH  091%=      5-min Rain = 0
KHA2 090840Z 29012KT 05/04 A3025 RMK A01 T00520037  RH  090%=      5-min Rain = 0
KHA2 090841Z 29013KT 05/04 A3025 RMK A01 T00520036  RH  090%=      5-min Rain = 0
KHA2 090842Z 29012KT 05/04 A3025 RMK A01 T00520037  RH  090%=      5-min Rain = 0
KHA2 090843Z 29012KT 05/04 A3025 RMK A01 T00540038  RH  089%=      5-min Rain = 0
KHA2 090844Z 29011KT 06/04 A3025 RMK A01 T00550037  RH  089%=      5-min Rain = 0
KHA2 090845Z 29011KT 06/04 A3025 RMK A01 T00550038  RH  088%=      5-min Rain = 0
KHA2 090846Z 29011KT 06/04 A3025 RMK A01 T00560038  RH  088%=      5-min Rain = 0
KHA2 090847Z 29008KT 06/04 A3025 RMK A01 T00560037  RH  088%=      5-min Rain = 0
KHA2 090848Z 29009KT 06/04 A3025 RMK A01 T00560037  RH  087%=      5-min Rain = 0
KHA2 090849Z 29009KT 06/04 A3025 RMK A01 T00550036  RH  087%=      5-min Rain = 0
KHA2 090850Z 29011KT 06/04 A3025 RMK A01 T00560038  RH  088%=      5-min Rain = 0
KHA2 090851Z 29010KT 06/04 A3025 RMK A01 T00590040  RH  088%=      5-min Rain = 0
KHA2 090852Z 29009KT 06/04 A3025 RMK A01 T00600039  RH  087%=      5-min Rain = 0
KHA2 090853Z 29009KT 06/04 A3025 RMK A01 T00590038  RH  086%=      5-min Rain = 0
KHA2 090854Z 29010KT 06/04 A3025 RMK A01 T00580037  RH  086%=      5-min Rain = 0
KHA2 090855Z 29011KT 06/04 A3025 RMK A01 T00580037  RH  087%=      5-min Rain = 0
KHA2 090856Z 30013KT 06/04 A3025 RMK A01 T00590038  RH  087%=      5-min Rain = 0
KHA2 090857Z 29014KT 06/04 A3025 RMK A01 T00610041  RH  087%=      5-min Rain = 0
KHA2 090858Z 29012KT 06/04 A3025 RMK A01 T00630041  RH  086%=      5-min Rain = 0
KHA2 090859Z 29013KT 06/04 A3025 RMK A01 T00640040  RH  085%=      5-min Rain = 0
KHA2 090900Z 29013KT 06/04 A3024 RMK A01 T00640040  RH  084%=      5-min Rain = 0
KHA2 090901Z 29013KT 06/04 A3024 RMK A01 T00640039  RH  084%=      5-min Rain = 0
KHA2 090902Z 29013KT 06/04 A3024 RMK A01 T00630038  RH  084%=      5-min Rain = 0
KHA2 090903Z 29012KT 06/04 A3024 RMK A01 T00630038  RH  084%=      5-min Rain = 0
KHA2 090904Z 29010KT 06/04 A3024 RMK A01 T00630038  RH  084%=      5-min Rain = 0
KHA2 090905Z 29011KT 06/04 A3024 RMK A01 T00630038  RH  084%=      5-min Rain = 0
KHA2 090906Z 29013KT 07/04 A3024 RMK A01 T00660040  RH  084%=      5-min Rain = 0
KHA2 090907Z 29012KT 07/04 A3024 RMK A01 T00690042  RH  082%=      5-min Rain = 0
KHA2 090908Z 29011KT 07/04 A3024 RMK A01 T00710040  RH  081%=      5-min Rain = 0
KHA2 090909Z 29011KT 07/04 A3024 RMK A01 T00710040  RH  081%=      5-min Rain = 0
KHA2 090910Z 29010KT 07/04 A3024 RMK A01 T00710040  RH  081%=      5-min Rain = 0
KHA2 090911Z 29011KT 07/04 A3024 RMK A01 T00700039  RH  081%=      5-min Rain = 0
KHA2 090912Z 29012KT 07/04 A3024 RMK A01 T00700039  RH  081%=      5-min Rain = 0
KHA2 090913Z 29013KT 07/04 A3024 RMK A01 T00720041  RH  081%=      5-min Rain = 0
KHA2 090914Z 29013KT 07/04 A3024 RMK A01 T00740041  RH  080%=      5-min Rain = 0
KHA2 090915Z 29012KT 07/04 A3024 RMK A01 T00740040  RH  079%=      5-min Rain = 0
KHA2 090916Z 29012KT 07/04 A3024 RMK A01 T00730039  RH  079%=      5-min Rain = 0
KHA2 090917Z 29012KT 07/04 A3024 RMK A01 T00710038  RH  080%=      5-min Rain = 0
KHA2 090918Z 29012KT 07/04 A3024 RMK A01 T00700038  RH  080%=      5-min Rain = 0
KHA2 090919Z 29013KT 07/04 A3024 RMK A01 T00690038  RH  081%=      5-min Rain = 0
KHA2 090920Z 29013KT 07/04 A3024 RMK A01 T00690038  RH  081%=      5-min Rain = 0
KHA2 090921Z 29013KT 07/04 A3024 RMK A01 T00670037  RH  081%=      5-min Rain = 0
KHA2 090922Z 29012KT 07/04 A3024 RMK A01 T00650036  RH  081%=      5-min Rain = 0
KHA2 090923Z 29012KT 07/04 A3024 RMK A01 T00650036  RH  082%=      5-min Rain = 0
KHA2 090924Z 29014KT 06/04 A3024 RMK A01 T00640036  RH  082%=      5-min Rain = 0
KHA2 090925Z 29014KT 06/04 A3024 RMK A01 T00640037  RH  083%=      5-min Rain = 0
KHA2 090926Z 30013KT 06/04 A3024 RMK A01 T00640036  RH  082%=      5-min Rain = 0
KHA2 090927Z 29013KT 06/04 A3024 RMK A01 T00640036  RH  082%=      5-min Rain = 0
KHA2 090928Z 29014KT 06/04 A3024 RMK A01 T00630035  RH  082%=      5-min Rain = 0
KHA2 090929Z 29014KT 06/04 A3024 RMK A01 T00630035  RH  082%=      5-min Rain = 0
KHA2 090930Z 29014KT 06/04 A3023 RMK A01 T00630035  RH  082%=      5-min Rain = 0
KHA2 090931Z 30013KT 06/04 A3023 RMK A01 T00630035  RH  082%=      5-min Rain = 0
KHA2 090932Z 30011KT 06/03 A3023 RMK A01 T00620033  RH  082%=      5-min Rain = 0
KHA2 090933Z 30010KT 06/03 A3023 RMK A01 T00600031  RH  082%=      5-min Rain = 0
KHA2 090934Z 30010KT 06/03 A3023 RMK A01 T00570029  RH  082%=      5-min Rain = 0
KHA2 090935Z 30011KT 05/03 A3023 RMK A01 T00540028  RH  083%=      5-min Rain = 0
KHA2 090936Z 30010KT 05/03 A3023 RMK A01 T00530028  RH  084%=      5-min Rain = 0
KHA2 090937Z 30010KT 05/03 A3023 RMK A01 T00520028  RH  085%=      5-min Rain = 0
KHA2 090938Z 29010KT 05/03 A3023 RMK A01 T00520030  RH  085%=      5-min Rain = 0
KHA2 090939Z 30010KT 05/03 A3023 RMK A01 T00540030  RH  085%=      5-min Rain = 0
KHA2 090940Z 29010KT 05/03 A3023 RMK A01 T00540029  RH  084%=      5-min Rain = 0
KHA2 090941Z 29011KT 06/03 A3023 RMK A01 T00550031  RH  084%=      5-min Rain = 0
KHA2 090942Z 30011KT 06/03 A3023 RMK A01 T00580032  RH  083%=      5-min Rain = 0
KHA2 090943Z 29011KT 06/03 A3023 RMK A01 T00590032  RH  082%=      5-min Rain = 0
KHA2 090944Z 29012KT 06/03 A3023 RMK A01 T00610032  RH  082%=      5-min Rain = 0
KHA2 090945Z 29011KT 06/03 A3023 RMK A01 T00640033  RH  080%=      5-min Rain = 0
KHA2 090946Z 29011KT 07/03 A3023 RMK A01 T00670033  RH  079%=      5-min Rain = 0
KHA2 090947Z 29009KT 07/03 A3023 RMK A01 T00680033  RH  078%=      5-min Rain = 0
KHA2 090948Z 29008KT 07/03 A3023 RMK A01 T00660031  RH  078%=      5-min Rain = 0
KHA2 090949Z 29009KT 06/03 A3023 RMK A01 T00640031  RH  079%=      5-min Rain = 0
KHA2 090950Z 29009KT 06/03 A3023 RMK A01 T00640031  RH  080%=      5-min Rain = 0
KHA2 090951Z 29009KT 06/03 A3023 RMK A01 T00630031  RH  080%=      5-min Rain = 0
KHA2 090952Z 29010KT 06/03 A3023 RMK A01 T00630031  RH  080%=      5-min Rain = 0
KHA2 090953Z 29010KT 06/03 A3023 RMK A01 T00630031  RH  080%=      5-min Rain = 0
KHA2 090954Z 29010KT 06/03 A3023 RMK A01 T00620031  RH  080%=      5-min Rain = 0
KHA2 090955Z 29010KT 06/03 A3023 RMK A01 T00620031  RH  081%=      5-min Rain = 0
KHA2 090956Z 29009KT 06/03 A3023 RMK A01 T00620031  RH  080%=      5-min Rain = 0
KHA2 090957Z 29007KT 06/03 A3023 RMK A01 T00620030  RH  080%=      5-min Rain = 0
KHA2 090958Z 28007KT 06/03 A3023 RMK A01 T00590029  RH  081%=      5-min Rain = 0
KHA2 090959Z 29008KT 06/03 A3023 RMK A01 T00570028  RH  082%=      5-min Rain = 0
KHA2 091000Z 29008KT 06/03 A3023 RMK A01 T00560028  RH  082%=      5-min Rain = 0
KHA2 091001Z 29009KT 05/03 A3023 RMK A01 T00540028  RH  083%=      5-min Rain = 0
KHA2 091002Z 29008KT 05/03 A3023 RMK A01 T00540028  RH  083%=      5-min Rain = 0
KHA2 091003Z 29008KT 05/03 A3023 RMK A01 T00530028  RH  084%=      5-min Rain = 0
KHA2 091004Z 29008KT 05/03 A3023 RMK A01 T00520027  RH  084%=      5-min Rain = 0
KHA2 091005Z 29008KT 05/03 A3023 RMK A01 T00510027  RH  085%=      5-min Rain = 0
KHA2 091006Z 29007KT 05/03 A3023 RMK A01 T00500027  RH  085%=      5-min Rain = 0
KHA2 091007Z 29007KT 05/03 A3023 RMK A01 T00490027  RH  086%=      5-min Rain = 0
KHA2 091008Z 29007KT 05/03 A3023 RMK A01 T00480027  RH  086%=      5-min Rain = 0
KHA2 091009Z 29008KT 05/03 A3023 RMK A01 T00480027  RH  087%=      5-min Rain = 0
KHA2 091010Z 29008KT 05/03 A3023 RMK A01 T00480028  RH  087%=      5-min Rain = 0
KHA2 091011Z 29007KT 05/03 A3023 RMK A01 T00480029  RH  087%=      5-min Rain = 0
KHA2 091012Z 30008KT 05/03 A3023 RMK A01 T00490029  RH  087%=      5-min Rain = 0
KHA2 091013Z 29009KT 05/03 A3023 RMK A01 T00480029  RH  087%=      5-min Rain = 0
KHA2 091014Z 29009KT 05/03 A3023 RMK A01 T00490030  RH  087%=      5-min Rain = 0
KHA2 091015Z 29009KT 05/03 A3023 RMK A01 T00490029  RH  087%=      5-min Rain = 0
KHA2 091016Z 29008KT 05/03 A3023 RMK A01 T00490029  RH  087%=      5-min Rain = 0
KHA2 091017Z 29009KT 05/03 A3023 RMK A01 T00490029  RH  087%=      5-min Rain = 0
KHA2 091018Z 29008KT 05/03 A3023 RMK A01 T00490029  RH  087%=      5-min Rain = 0
KHA2 091019Z 29006KT 05/03 A3023 RMK A01 T00490029  RH  087%=      5-min Rain = 0
KHA2 091020Z 29008KT 05/03 A3023 RMK A01 T00480028  RH  087%=      5-min Rain = 0
KHA2 091021Z 29009KT 05/03 A3023 RMK A01 T00480028  RH  087%=      5-min Rain = 0
KHA2 091022Z 30009KT 05/03 A3023 RMK A01 T00480028  RH  087%=      5-min Rain = 0
KHA2 091023Z 30007KT 05/03 A3023 RMK A01 T00470028  RH  087%=      5-min Rain = 0
KHA2 091024Z 29007KT 05/03 A3023 RMK A01 T00460025  RH  087%=      5-min Rain = 0
KHA2 091025Z 29008KT 04/03 A3023 RMK A01 T00440025  RH  087%=      5-min Rain = 0
KHA2 091026Z 29008KT 04/03 A3023 RMK A01 T00440025  RH  088%=      5-min Rain = 0
KHA2 091027Z 28007KT 04/03 A3023 RMK A01 T00440026  RH  088%=      5-min Rain = 0
KHA2 091028Z 28005KT 05/03 A3023 RMK A01 T00450027  RH  088%=      5-min Rain = 0
KHA2 091029Z 28006KT 05/03 A3023 RMK A01 T00450025  RH  087%=      5-min Rain = 0
KHA2 091030Z 28006KT 04/02 A3023 RMK A01 T00430024  RH  087%=      5-min Rain = 0
KHA2 091031Z 28007KT 04/02 A3023 RMK A01 T00420024  RH  088%=      5-min Rain = 0
KHA2 091032Z 28008KT 04/02 A3023 RMK A01 T00420024  RH  088%=      5-min Rain = 0
KHA2 091033Z 28009KT 04/02 A3022 RMK A01 T00420024  RH  088%=      5-min Rain = 0
KHA2 091034Z 28009KT 04/02 A3022 RMK A01 T00420024  RH  088%=      5-min Rain = 0
KHA2 091035Z 28010KT 04/03 A3022 RMK A01 T00420025  RH  089%=      5-min Rain = 0
KHA2 091036Z 28009KT 04/02 A3022 RMK A01 T00410024  RH  089%=      5-min Rain = 0
KHA2 091037Z 27011KT 04/02 A3022 RMK A01 T00410024  RH  089%=      5-min Rain = 0
KHA2 091038Z 27010KT 04/02 A3022 RMK A01 T00400024  RH  089%=      5-min Rain = 0
KHA2 091039Z 27011KT 04/02 A3022 RMK A01 T00400024  RH  090%=      5-min Rain = 0
KHA2 091040Z 27010KT 04/02 A3022 RMK A01 T00390024  RH  090%=      5-min Rain = 0
KHA2 091041Z 28010KT 04/02 A3022 RMK A01 T00390023  RH  090%=      5-min Rain = 0
KHA2 091042Z 28009KT 04/02 A3022 RMK A01 T00390024  RH  090%=      5-min Rain = 0
KHA2 091043Z 28010KT 04/02 A3022 RMK A01 T00390024  RH  090%=      5-min Rain = 0
KHA2 091044Z 29009KT 04/02 A3022 RMK A01 T00400024  RH  090%=      5-min Rain = 0
KHA2 091045Z 29008KT 04/02 A3022 RMK A01 T00400024  RH  089%=      5-min Rain = 0
KHA2 091046Z 28009KT 04/02 A3022 RMK A01 T00400024  RH  089%=      5-min Rain = 0
KHA2 091047Z 28009KT 04/02 A3022 RMK A01 T00400024  RH  089%=      5-min Rain = 0
KHA2 091048Z 29008KT 04/02 A3022 RMK A01 T00410024  RH  089%=      5-min Rain = 0
KHA2 091049Z 29008KT 04/03 A3022 RMK A01 T00410025  RH  089%=      5-min Rain = 0
KHA2 091050Z 29008KT 04/03 A3022 RMK A01 T00420026  RH  089%=      5-min Rain = 0
KHA2 091051Z 30007KT 04/03 A3022 RMK A01 T00440027  RH  089%=      5-min Rain = 0
KHA2 091052Z 30010KT 05/03 A3022 RMK A01 T00460028  RH  088%=      5-min Rain = 0
KHA2 091053Z 31008KT 05/03 A3023 RMK A01 T00470027  RH  087%=      5-min Rain = 0
KHA2 091054Z 31009KT 04/02 A3023 RMK A01 T00440023  RH  086%=      5-min Rain = 0
KHA2 091055Z 31010KT 04/02 A3022 RMK A01 T00390018  RH  086%=      5-min Rain = 0
KHA2 091056Z 30010KT 04/02 A3022 RMK A01 T00360017  RH  088%=      5-min Rain = 0
KHA2 091057Z 30009KT 03/02 A3022 RMK A01 T00330016  RH  089%=      5-min Rain = 0
KHA2 091058Z 30009KT 03/02 A3022 RMK A01 T00310016  RH  090%=      5-min Rain = 0
KHA2 091059Z 29009KT 03/02 A3022 RMK A01 T00290015  RH  090%=      5-min Rain = 0
KHA2 091100Z 29009KT 03/02 A3022 RMK A01 T00280015  RH  091%=      5-min Rain = 0
KHA2 091101Z 29010KT 03/02 A3022 RMK A01 T00300019  RH  092%=      5-min Rain = 0
KHA2 091102Z 29010KT 04/03 A3022 RMK A01 T00350025  RH  093%=      5-min Rain = 0
KHA2 091103Z 29011KT 04/03 A3022 RMK A01 T00400029  RH  093%=      5-min Rain = 0
KHA2 091104Z 29010KT 05/03 A3022 RMK A01 T00450031  RH  091%=      5-min Rain = 0
KHA2 091105Z 29009KT 05/03 A3022 RMK A01 T00470030  RH  089%=      5-min Rain = 0
KHA2 091106Z 29008KT 05/03 A3022 RMK A01 T00480029  RH  088%=      5-min Rain = 0
KHA2 091107Z 29008KT 05/03 A3022 RMK A01 T00480028  RH  087%=      5-min Rain = 0
KHA2 091108Z 28008KT 05/03 A3022 RMK A01 T00490027  RH  086%=      5-min Rain = 0
KHA2 091109Z 29009KT 05/03 A3022 RMK A01 T00470025  RH  086%=      5-min Rain = 0
KHA2 091110Z 29008KT 05/03 A3022 RMK A01 T00460025  RH  086%=      5-min Rain = 0
KHA2 091111Z 29008KT 05/03 A3022 RMK A01 T00470026  RH  087%=      5-min Rain = 0
KHA2 091112Z 29010KT 05/03 A3022 RMK A01 T00480027  RH  087%=      5-min Rain = 0
KHA2 091113Z 29008KT 05/03 A3022 RMK A01 T00510030  RH  087%=      5-min Rain = 0
KHA2 091114Z 29011KT 05/03 A3022 RMK A01 T00520030  RH  086%=      5-min Rain = 0
KHA2 091115Z 29011KT 06/03 A3022 RMK A01 T00550032  RH  085%=      5-min Rain = 0
KHA2 091116Z 29011KT 06/03 A3022 RMK A01 T00570032  RH  084%=      5-min Rain = 0
KHA2 091117Z 29011KT 06/03 A3022 RMK A01 T00580032  RH  083%=      5-min Rain = 0
KHA2 091118Z 29011KT 06/03 A3022 RMK A01 T00580031  RH  083%=      5-min Rain = 0
KHA2 091119Z 29011KT 06/03 A3022 RMK A01 T00580031  RH  083%=      5-min Rain = 0
KHA2 091120Z 29011KT 06/03 A3022 RMK A01 T00580031  RH  083%=      5-min Rain = 0
KHA2 091121Z 30010KT 06/03 A3022 RMK A01 T00580031  RH  083%=      5-min Rain = 0
KHA2 091122Z 30009KT 06/03 A3022 RMK A01 T00570028  RH  082%=      5-min Rain = 0
KHA2 091123Z 31008KT 05/03 A3023 RMK A01 T00530025  RH  082%=      5-min Rain = 0
KHA2 091124Z 31009KT 05/02 A3023 RMK A01 T00480021  RH  083%=      5-min Rain = 0
KHA2 091125Z 31011KT 04/02 A3023 RMK A01 T00440021  RH  085%=      5-min Rain = 0
KHA2 091126Z 30010KT 04/02 A3023 RMK A01 T00420021  RH  086%=      5-min Rain = 0
KHA2 091127Z 30010KT 04/02 A3023 RMK A01 T00400019  RH  087%=      5-min Rain = 0
KHA2 091128Z 30010KT 04/02 A3023 RMK A01 T00380019  RH  087%=      5-min Rain = 0
KHA2 091129Z 31010KT 04/02 A3023 RMK A01 T00360018  RH  088%=      5-min Rain = 0
KHA2 091130Z 31010KT 03/02 A3023 RMK A01 T00340017  RH  089%=      5-min Rain = 0
KHA2 091131Z 31010KT 03/02 A3023 RMK A01 T00330017  RH  089%=      5-min Rain = 0
KHA2 091132Z 31010KT 03/02 A3023 RMK A01 T00320017  RH  090%=      5-min Rain = 0
KHA2 091133Z 30011KT 03/02 A3023 RMK A01 T00320018  RH  091%=      5-min Rain = 0
KHA2 091134Z 30011KT 03/02 A3023 RMK A01 T00320019  RH  091%=      5-min Rain = 0
KHA2 091135Z 30011KT 03/02 A3023 RMK A01 T00340021  RH  091%=      5-min Rain = 0
KHA2 091136Z 30012KT 03/02 A3023 RMK A01 T00340021  RH  091%=      5-min Rain = 0
KHA2 091137Z 30012KT 04/02 A3023 RMK A01 T00360023  RH  091%=      5-min Rain = 0
KHA2 091138Z 30011KT 04/02 A3023 RMK A01 T00370024  RH  091%=      5-min Rain = 0
KHA2 091139Z 30011KT 04/02 A3023 RMK A01 T00380024  RH  091%=      5-min Rain = 0
KHA2 091140Z 30010KT 04/02 A3023 RMK A01 T00390024  RH  090%=      5-min Rain = 0
KHA2 091141Z 30011KT 04/02 A3023 RMK A01 T00390024  RH  090%=      5-min Rain = 0
KHA2 091142Z 30010KT 04/02 A3023 RMK A01 T00390024  RH  090%=      5-min Rain = 0
KHA2 091143Z 30009KT 04/02 A3023 RMK A01 T00390024  RH  090%=      5-min Rain = 0
KHA2 091144Z 30009KT 04/02 A3023 RMK A01 T00380023  RH  090%=      5-min Rain = 0
KHA2 091145Z 30010KT 04/02 A3023 RMK A01 T00380023  RH  090%=      5-min Rain = 0
KHA2 091146Z 30010KT 04/02 A3023 RMK A01 T00380023  RH  090%=      5-min Rain = 0
KHA2 091147Z 30011KT 04/02 A3023 RMK A01 T00370023  RH  091%=      5-min Rain = 0
KHA2 091148Z 31011KT 04/02 A3023 RMK A01 T00380023  RH  090%=      5-min Rain = 0
KHA2 091149Z 31011KT 04/02 A3023 RMK A01 T00380024  RH  091%=      5-min Rain = 0
KHA2 091150Z 31011KT 04/02 A3023 RMK A01 T00370023  RH  090%=      5-min Rain = 0
KHA2 091151Z 31012KT 04/02 A3023 RMK A01 T00370023  RH  090%=      5-min Rain = 0
KHA2 091152Z 30012KT 04/02 A3023 RMK A01 T00370023  RH  091%=      5-min Rain = 0
KHA2 091153Z 30011KT 04/02 A3023 RMK A01 T00370023  RH  091%=      5-min Rain = 0
KHA2 091154Z 30011KT 04/02 A3023 RMK A01 T00380024  RH  091%=      5-min Rain = 0
KHA2 091155Z 30011KT 04/02 A3023 RMK A01 T00370023  RH  091%=      5-min Rain = 0
KHA2 091156Z 31010KT 04/02 A3023 RMK A01 T00380024  RH  091%=      5-min Rain = 0
KHA2 091157Z 30010KT 04/02 A3023 RMK A01 T00380023  RH  090%=      5-min Rain = 0
KHA2 091158Z 30010KT 04/02 A3023 RMK A01 T00380023  RH  090%=      5-min Rain = 0
KHA2 091159Z 30011KT 04/02 A3023 RMK A01 T00380024  RH  090%=      5-min Rain = 0
KHA2 091200Z 30010KT 04/02 A3023 RMK A01 T00390024  RH  090%=      5-min Rain = 0
KHA2 091201Z 30011KT 04/03 A3023 RMK A01 T00390025  RH  090%=      5-min Rain = 0
KHA2 091202Z 30011KT 04/03 A3023 RMK A01 T00400025  RH  090%=      5-min Rain = 0
KHA2 091203Z 30011KT 04/03 A3023 RMK A01 T00410025  RH  090%=      5-min Rain = 0
KHA2 091204Z 30010KT 04/03 A3023 RMK A01 T00420026  RH  090%=      5-min Rain = 0
KHA2 091205Z 30011KT 04/03 A3023 RMK A01 T00420026  RH  089%=      5-min Rain = 0
KHA2 091206Z 30011KT 04/03 A3023 RMK A01 T00430026  RH  089%=      5-min Rain = 0
KHA2 091207Z 30012KT 05/03 A3023 RMK A01 T00450027  RH  088%=      5-min Rain = 0
KHA2 091208Z 30011KT 05/03 A3023 RMK A01 T00460027  RH  088%=      5-min Rain = 0
KHA2 091209Z 30011KT 05/03 A3023 RMK A01 T00460026  RH  087%=      5-min Rain = 0
KHA2 091210Z 30012KT 05/03 A3023 RMK A01 T00450026  RH  087%=      5-min Rain = 0
KHA2 091211Z 30011KT 04/03 A3023 RMK A01 T00440025  RH  087%=      5-min Rain = 0
KHA2 091212Z 30012KT 04/03 A3023 RMK A01 T00430025  RH  088%=      5-min Rain = 0
KHA2 091213Z 30012KT 04/03 A3023 RMK A01 T00430025  RH  088%=      5-min Rain = 0
KHA2 091214Z 30012KT 04/03 A3023 RMK A01 T00430025  RH  088%=      5-min Rain = 0
KHA2 091215Z 31011KT 04/03 A3023 RMK A01 T00430025  RH  088%=      5-min Rain = 0
KHA2 091216Z 30011KT 04/02 A3023 RMK A01 T00420024  RH  088%=      5-min Rain = 0
KHA2 091217Z 31011KT 04/02 A3023 RMK A01 T00410023  RH  088%=      5-min Rain = 0
KHA2 091218Z 31011KT 04/02 A3023 RMK A01 T00400022  RH  088%=      5-min Rain = 0
KHA2 091219Z 31011KT 04/02 A3023 RMK A01 T00390022  RH  089%=      5-min Rain = 0
KHA2 091220Z 31010KT 04/02 A3023 RMK A01 T00380021  RH  089%=      5-min Rain = 0
KHA2 091221Z 31011KT 04/02 A3023 RMK A01 T00370021  RH  089%=      5-min Rain = 0
KHA2 091222Z 31010KT 04/02 A3023 RMK A01 T00360021  RH  090%=      5-min Rain = 0
KHA2 091223Z 31010KT 04/02 A3023 RMK A01 T00370021  RH  089%=      5-min Rain = 0
KHA2 091224Z 31010KT 04/02 A3023 RMK A01 T00360020  RH  089%=      5-min Rain = 0
KHA2 091225Z 31010KT 03/02 A3023 RMK A01 T00340019  RH  090%=      5-min Rain = 0
KHA2 091226Z 31010KT 03/02 A3023 RMK A01 T00330018  RH  090%=      5-min Rain = 0
KHA2 091227Z 31009KT 03/02 A3023 RMK A01 T00330018  RH  090%=      5-min Rain = 0
KHA2 091228Z 31009KT 03/02 A3023 RMK A01 T00320018  RH  091%=      5-min Rain = 0
KHA2 091229Z 30009KT 03/02 A3023 RMK A01 T00320018  RH  091%=      5-min Rain = 0
KHA2 091230Z 30010KT 03/02 A3023 RMK A01 T00320018  RH  091%=      5-min Rain = 0
KHA2 091231Z 31010KT 03/02 A3023 RMK A01 T00320019  RH  091%=      5-min Rain = 0
KHA2 091232Z 31011KT 03/02 A3023 RMK A01 T00330020  RH  091%=      5-min Rain = 0
KHA2 091233Z 31011KT 03/02 A3023 RMK A01 T00340020  RH  091%=      5-min Rain = 0
KHA2 091234Z 31011KT 04/02 A3023 RMK A01 T00350021  RH  091%=      5-min Rain = 0
KHA2 091235Z 30011KT 04/02 A3023 RMK A01 T00350021  RH  090%=      5-min Rain = 0
KHA2 091236Z 31011KT 04/02 A3023 RMK A01 T00360020  RH  090%=      5-min Rain = 0
KHA2 091237Z 31011KT 04/02 A3023 RMK A01 T00360021  RH  090%=      5-min Rain = 0
KHA2 091238Z 31011KT 04/02 A3023 RMK A01 T00360020  RH  089%=      5-min Rain = 0
KHA2 091239Z 31011KT 04/02 A3023 RMK A01 T00360020  RH  089%=      5-min Rain = 0
KHA2 091240Z 31011KT 04/02 A3023 RMK A01 T00360020  RH  089%=      5-min Rain = 0
KHA2 091241Z 30010KT 04/02 A3023 RMK A01 T00360020  RH  089%=      5-min Rain = 0
KHA2 091242Z 31011KT 04/02 A3023 RMK A01 T00360020  RH  089%=      5-min Rain = 0
KHA2 091243Z 31011KT 04/02 A3023 RMK A01 T00360020  RH  089%=      5-min Rain = 0
KHA2 091244Z 31011KT 04/02 A3023 RMK A01 T00360020  RH  089%=      5-min Rain = 0
KHA2 091245Z 30011KT 04/02 A3023 RMK A01 T00360020  RH  089%=      5-min Rain = 0
KHA2 091246Z 30011KT 04/02 A3023 RMK A01 T00360019  RH  089%=      5-min Rain = 0
KHA2 091247Z 30010KT 04/02 A3023 RMK A01 T00360020  RH  089%=      5-min Rain = 0
KHA2 091248Z 30010KT 04/02 A3023 RMK A01 T00360020  RH  089%=      5-min Rain = 0
KHA2 091249Z 30010KT 04/02 A3023 RMK A01 T00360020  RH  089%=      5-min Rain = 0
KHA2 091250Z 30010KT 04/02 A3023 RMK A01 T00370020  RH  089%=      5-min Rain = 0
KHA2 091251Z 30010KT 04/02 A3023 RMK A01 T00370021  RH  089%=      5-min Rain = 0
KHA2 091252Z 30010KT 04/02 A3023 RMK A01 T00370020  RH  089%=      5-min Rain = 0
KHA2 091253Z 30010KT 04/02 A3023 RMK A01 T00370020  RH  088%=      5-min Rain = 0
KHA2 091254Z 30010KT 04/02 A3023 RMK A01 T00370020  RH  088%=      5-min Rain = 0
KHA2 091255Z 30010KT 04/02 A3023 RMK A01 T00370020  RH  089%=      5-min Rain = 0
KHA2 091256Z 30010KT 04/02 A3023 RMK A01 T00370020  RH  089%=      5-min Rain = 0
KHA2 091257Z 30010KT 04/02 A3023 RMK A01 T00360019  RH  089%=      5-min Rain = 0
KHA2 091258Z 30009KT 04/02 A3023 RMK A01 T00350018  RH  089%=      5-min Rain = 0
KHA2 091259Z 30009KT 03/02 A3023 RMK A01 T00340017  RH  089%=      5-min Rain = 0
KHA2 091300Z 30010KT 03/02 A3023 RMK A01 T00340017  RH  089%=      5-min Rain = 0
KHA2 091301Z 30010KT 03/02 A3023 RMK A01 T00330017  RH  089%=      5-min Rain = 0
KHA2 091302Z 30010KT 03/02 A3023 RMK A01 T00320016  RH  089%=      5-min Rain = 0
KHA2 091303Z 30010KT 03/02 A3023 RMK A01 T00320016  RH  090%=      5-min Rain = 0
KHA2 091304Z 30010KT 03/02 A3023 RMK A01 T00310016  RH  090%=      5-min Rain = 0
KHA2 091305Z 30010KT 03/02 A3023 RMK A01 T00300015  RH  090%=      5-min Rain = 0
KHA2 091306Z 30010KT 03/02 A3023 RMK A01 T00290015  RH  090%=      5-min Rain = 0
KHA2 091307Z 30010KT 03/02 A3023 RMK A01 T00290015  RH  090%=      5-min Rain = 0
KHA2 091308Z 30010KT 03/02 A3023 RMK A01 T00280015  RH  091%=      5-min Rain = 0
KHA2 091309Z 30009KT 03/02 A3023 RMK A01 T00290015  RH  091%=      5-min Rain = 0
KHA2 091310Z 30009KT 03/02 A3023 RMK A01 T00280015  RH  091%=      5-min Rain = 0
KHA2 091311Z 30009KT 03/02 A3023 RMK A01 T00280015  RH  091%=      5-min Rain = 0
KHA2 091312Z 30010KT 03/01 A3023 RMK A01 T00280014  RH  091%=      5-min Rain = 0
KHA2 091313Z 30010KT 03/02 A3023 RMK A01 T00280015  RH  091%=      5-min Rain = 0
KHA2 091314Z 30010KT 03/02 A3023 RMK A01 T00280015  RH  091%=      5-min Rain = 0
KHA2 091315Z 30010KT 03/02 A3023 RMK A01 T00290016  RH  091%=      5-min Rain = 0
KHA2 091316Z 30010KT 03/02 A3023 RMK A01 T00290017  RH  091%=      5-min Rain = 0
KHA2 091317Z 30010KT 03/02 A3023 RMK A01 T00310017  RH  091%=      5-min Rain = 0
KHA2 091318Z 30010KT 03/02 A3023 RMK A01 T00320018  RH  091%=      5-min Rain = 0
KHA2 091319Z 30010KT 03/02 A3023 RMK A01 T00320017  RH  090%=      5-min Rain = 0
KHA2 091320Z 30010KT 03/02 A3023 RMK A01 T00330018  RH  090%=      5-min Rain = 0
KHA2 091321Z 30010KT 03/02 A3023 RMK A01 T00330018  RH  090%=      5-min Rain = 0
KHA2 091322Z 30010KT 04/02 A3023 RMK A01 T00350019  RH  090%=      5-min Rain = 0
KHA2 091323Z 30009KT 04/02 A3023 RMK A01 T00360019  RH  089%=      5-min Rain = 0
KHA2 091324Z 29008KT 04/02 A3023 RMK A01 T00360019  RH  089%=      5-min Rain = 0
KHA2 091325Z 30008KT 04/02 A3023 RMK A01 T00360019  RH  088%=      5-min Rain = 0
KHA2 091326Z 30009KT 04/02 A3023 RMK A01 T00360019  RH  088%=      5-min Rain = 0
KHA2 091327Z 30009KT 04/02 A3023 RMK A01 T00360019  RH  088%=      5-min Rain = 0
KHA2 091328Z 30009KT 04/02 A3023 RMK A01 T00360018  RH  088%=      5-min Rain = 0
KHA2 091329Z 30009KT 04/02 A3023 RMK A01 T00360018  RH  088%=      5-min Rain = 0
KHA2 091330Z 30010KT 04/02 A3023 RMK A01 T00360018  RH  088%=      5-min Rain = 0
KHA2 091331Z 30010KT 04/02 A3023 RMK A01 T00370019  RH  088%=      5-min Rain = 0
KHA2 091332Z 30010KT 04/02 A3023 RMK A01 T00380019  RH  088%=      5-min Rain = 0
KHA2 091333Z 30010KT 04/02 A3023 RMK A01 T00370018  RH  087%=      5-min Rain = 0
KHA2 091334Z 30010KT 04/02 A3023 RMK A01 T00370018  RH  088%=      5-min Rain = 0
KHA2 091335Z 30010KT 04/02 A3023 RMK A01 T00360018  RH  088%=      5-min Rain = 0
KHA2 091336Z 30010KT 04/02 A3023 RMK A01 T00360018  RH  088%=      5-min Rain = 0
KHA2 091337Z 30010KT 04/02 A3023 RMK A01 T00360017  RH  088%=      5-min Rain = 0
KHA2 091338Z 30010KT 04/02 A3023 RMK A01 T00350017  RH  088%=      5-min Rain = 0
KHA2 091339Z 30010KT 04/02 A3023 RMK A01 T00350017  RH  088%=      5-min Rain = 0
KHA2 091340Z 30010KT 04/02 A3023 RMK A01 T00350017  RH  088%=      5-min Rain = 0
KHA2 091341Z 30010KT 04/02 A3023 RMK A01 T00350018  RH  088%=      5-min Rain = 0
KHA2 091342Z 30010KT 04/02 A3023 RMK A01 T00350018  RH  088%=      5-min Rain = 0
KHA2 091343Z 30010KT 04/02 A3023 RMK A01 T00350018  RH  088%=      5-min Rain = 0
KHA2 091344Z 30009KT 04/02 A3023 RMK A01 T00360019  RH  089%=      5-min Rain = 0
KHA2 091345Z 30009KT 04/02 A3023 RMK A01 T00360019  RH  088%=      5-min Rain = 0
KHA2 091346Z 30009KT 04/02 A3023 RMK A01 T00370020  RH  088%=      5-min Rain = 0
KHA2 091347Z 30009KT 04/02 A3023 RMK A01 T00380020  RH  088%=      5-min Rain = 0
KHA2 091348Z 30008KT 04/02 A3023 RMK A01 T00380020  RH  088%=      5-min Rain = 0
KHA2 091349Z 30009KT 04/02 A3023 RMK A01 T00390021  RH  088%=      5-min Rain = 0
KHA2 091350Z 30009KT 04/02 A3023 RMK A01 T00390020  RH  088%=      5-min Rain = 0
KHA2 091351Z 30008KT 04/02 A3024 RMK A01 T00390021  RH  088%=      5-min Rain = 0
KHA2 091352Z 29008KT 04/02 A3024 RMK A01 T00390021  RH  088%=      5-min Rain = 0
KHA2 091353Z 30008KT 04/02 A3024 RMK A01 T00400022  RH  088%=      5-min Rain = 0
KHA2 091354Z 30008KT 04/02 A3024 RMK A01 T00400022  RH  088%=      5-min Rain = 0
KHA2 091355Z 30008KT 04/02 A3024 RMK A01 T00410023  RH  088%=      5-min Rain = 0
KHA2 091356Z 30009KT 04/02 A3024 RMK A01 T00420023  RH  088%=      5-min Rain = 0
KHA2 091357Z 30008KT 04/02 A3024 RMK A01 T00420023  RH  087%=      5-min Rain = 0
KHA2 091358Z 30009KT 04/02 A3024 RMK A01 T00420023  RH  087%=      5-min Rain = 0
KHA2 091359Z 30009KT 04/02 A3024 RMK A01 T00420023  RH  087%=      5-min Rain = 0
KHA2 091400Z 30009KT 04/02 A3024 RMK A01 T00420023  RH  087%=      5-min Rain = 0
KHA2 091401Z 30009KT 04/02 A3024 RMK A01 T00430023  RH  087%=      5-min Rain = 0
KHA2 091402Z 30010KT 04/02 A3024 RMK A01 T00430024  RH  087%=      5-min Rain = 0
KHA2 091403Z 30009KT 04/02 A3024 RMK A01 T00430024  RH  088%=      5-min Rain = 0
KHA2 091404Z 30009KT 04/02 A3024 RMK A01 T00430024  RH  088%=      5-min Rain = 0
KHA2 091405Z 30009KT 04/03 A3024 RMK A01 T00430025  RH  088%=      5-min Rain = 0
KHA2 091406Z 30010KT 04/03 A3024 RMK A01 T00430025  RH  088%=      5-min Rain = 0
KHA2 091407Z 30009KT 04/03 A3024 RMK A01 T00430026  RH  088%=      5-min Rain = 0
KHA2 091408Z 29009KT 04/03 A3024 RMK A01 T00440026  RH  088%=      5-min Rain = 0
KHA2 091409Z 29008KT 05/03 A3024 RMK A01 T00450027  RH  088%=      5-min Rain = 0
KHA2 091410Z 29008KT 05/03 A3024 RMK A01 T00470028  RH  088%=      5-min Rain = 0
KHA2 091411Z 30007KT 05/03 A3024 RMK A01 T00490030  RH  088%=      5-min Rain = 0
KHA2 091412Z 30008KT 05/03 A3024 RMK A01 T00500030  RH  087%=      5-min Rain = 0
KHA2 091413Z 30008KT 05/03 A3024 RMK A01 T00510030  RH  086%=      5-min Rain = 0
KHA2 091414Z 30008KT 05/03 A3024 RMK A01 T00520031  RH  086%=      5-min Rain = 0
KHA2 091415Z 29007KT 05/03 A3024 RMK A01 T00520030  RH  086%=      5-min Rain = 0
KHA2 091416Z 29007KT 05/03 A3024 RMK A01 T00530031  RH  086%=      5-min Rain = 0
KHA2 091417Z 29007KT 05/03 A3024 RMK A01 T00540032  RH  086%=      5-min Rain = 0
KHA2 091418Z 29007KT 06/03 A3024 RMK A01 T00550033  RH  086%=      5-min Rain = 0
KHA2 091419Z 29006KT 06/03 A3024 RMK A01 T00560033  RH  085%=      5-min Rain = 0
KHA2 091420Z 28005KT 06/03 A3024 RMK A01 T00570033  RH  085%=      5-min Rain = 0
KHA2 091421Z 28004KT 06/04 A3024 RMK A01 T00590035  RH  085%=      5-min Rain = 0
KHA2 091422Z 28005KT 06/04 A3024 RMK A01 T00600035  RH  084%=      5-min Rain = 0
KHA2 091423Z 28005KT 06/03 A3024 RMK A01 T00600034  RH  084%=      5-min Rain = 0
KHA2 091424Z 29005KT 06/04 A3024 RMK A01 T00600036  RH  084%=      5-min Rain = 0
KHA2 091425Z 28005KT 06/04 A3024 RMK A01 T00600036  RH  084%=      5-min Rain = 0
KHA2 091426Z 29005KT 06/04 A3024 RMK A01 T00610036  RH  084%=      5-min Rain = 0
KHA2 091427Z 29005KT 06/04 A3024 RMK A01 T00620036  RH  083%=      5-min Rain = 0
KHA2 091428Z 29005KT 06/04 A3024 RMK A01 T00630038  RH  084%=      5-min Rain = 0
KHA2 091429Z 29005KT 06/04 A3024 RMK A01 T00640039  RH  084%=      5-min Rain = 0
KHA2 091430Z 28004KT 07/04 A3025 RMK A01 T00650039  RH  083%=      5-min Rain = 0
KHA2 091431Z 29004KT 07/04 A3025 RMK A01 T00660040  RH  083%=      5-min Rain = 0
KHA2 091432Z 29004KT 07/04 A3025 RMK A01 T00670040  RH  083%=      5-min Rain = 0
KHA2 091433Z 29004KT 07/04 A3025 RMK A01 T00680041  RH  083%=      5-min Rain = 0
KHA2 091434Z 30004KT 07/04 A3025 RMK A01 T00680041  RH  083%=      5-min Rain = 0
KHA2 091435Z 30006KT 07/04 A3025 RMK A01 T00690042  RH  083%=      5-min Rain = 0
KHA2 091436Z 30006KT 07/04 A3025 RMK A01 T00690042  RH  083%=      5-min Rain = 0
KHA2 091437Z 30005KT 07/04 A3025 RMK A01 T00690042  RH  083%=      5-min Rain = 0
KHA2 091438Z 30005KT 07/04 A3025 RMK A01 T00690043  RH  083%=      5-min Rain = 0
KHA2 091439Z 29005KT 07/04 A3025 RMK A01 T00700044  RH  084%=      5-min Rain = 0
KHA2 091440Z 30005KT 07/04 A3025 RMK A01 T00690044  RH  084%=      5-min Rain = 0
KHA2 091441Z 29004KT 07/04 A3025 RMK A01 T00690044  RH  084%=      5-min Rain = 0
KHA2 091442Z 30005KT 07/05 A3025 RMK A01 T00700046  RH  085%=      5-min Rain = 0
KHA2 091443Z 30005KT 07/05 A3025 RMK A01 T00700045  RH  084%=      5-min Rain = 0
KHA2 091444Z 30006KT 07/05 A3025 RMK A01 T00700045  RH  084%=      5-min Rain = 0
KHA2 091445Z 30006KT 07/05 A3025 RMK A01 T00700045  RH  084%=      5-min Rain = 0
KHA2 091446Z 30007KT 07/05 A3025 RMK A01 T00700046  RH  085%=      5-min Rain = 0
KHA2 091447Z 30007KT 07/05 A3025 RMK A01 T00700047  RH  085%=      5-min Rain = 0
KHA2 091448Z 30007KT 07/05 A3025 RMK A01 T00710048  RH  085%=      5-min Rain = 0
KHA2 091449Z 30007KT 07/05 A3025 RMK A01 T00710048  RH  085%=      5-min Rain = 0
KHA2 091450Z 30007KT 07/05 A3025 RMK A01 T00720049  RH  085%=      5-min Rain = 0
KHA2 091451Z 30008KT 07/05 A3025 RMK A01 T00730049  RH  085%=      5-min Rain = 0
KHA2 091452Z 30006KT 07/05 A3025 RMK A01 T00730050  RH  085%=      5-min Rain = 0
KHA2 091453Z 30007KT 08/05 A3025 RMK A01 T00750052  RH  085%=      5-min Rain = 0
KHA2 091454Z 30007KT 08/05 A3025 RMK A01 T00760054  RH  086%=      5-min Rain = 0
KHA2 091455Z 30006KT 08/06 A3025 RMK A01 T00770055  RH  086%=      5-min Rain = 0
KHA2 091456Z 29005KT 08/06 A3025 RMK A01 T00780055  RH  085%=      5-min Rain = 0
KHA2 091457Z 29006KT 08/06 A3025 RMK A01 T00790055  RH  085%=      5-min Rain = 0
KHA2 091458Z 29006KT 08/06 A3025 RMK A01 T00810055  RH  084%=      5-min Rain = 0
KHA2 091459Z 30006KT 08/06 A3025 RMK A01 T00830057  RH  084%=      5-min Rain = 0
KHA2 091500Z 30006KT 08/06 A3025 RMK A01 T00830056  RH  083%=      5-min Rain = 0
KHA2 091501Z 30005KT 09/06 A3025 RMK A01 T00850058  RH  083%=      5-min Rain = 0
KHA2 091502Z 30005KT 09/06 A3025 RMK A01 T00860060  RH  084%=      5-min Rain = 0
KHA2 091503Z 30006KT 09/06 A3025 RMK A01 T00870061  RH  084%=      5-min Rain = 0
KHA2 091504Z 30007KT 09/06 A3025 RMK A01 T00880061  RH  083%=      5-min Rain = 0
KHA2 091505Z 30007KT 09/06 A3025 RMK A01 T00880060  RH  083%=      5-min Rain = 0
KHA2 091506Z 30008KT 09/06 A3025 RMK A01 T00890061  RH  083%=      5-min Rain = 0
KHA2 091507Z 29008KT 09/06 A3025 RMK A01 T00890061  RH  082%=      5-min Rain = 0
KHA2 091508Z 29007KT 09/06 A3025 RMK A01 T00900060  RH  082%=      5-min Rain = 0
KHA2 091509Z 30006KT 09/06 A3025 RMK A01 T00900061  RH  082%=      5-min Rain = 0
KHA2 091510Z 29006KT 09/06 A3025 RMK A01 T00920063  RH  082%=      5-min Rain = 0
KHA2 091511Z 29005KT 09/07 A3025 RMK A01 T00930065  RH  083%=      5-min Rain = 0
KHA2 091512Z 29006KT 09/07 A3025 RMK A01 T00940067  RH  083%=      5-min Rain = 0
KHA2 091513Z 29006KT 10/06 A3025 RMK A01 T00950064  RH  081%=      5-min Rain = 0
KHA2 091514Z 29006KT 10/06 A3025 RMK A01 T00950063  RH  081%=      5-min Rain = 0
KHA2 091515Z 31006KT 10/07 A3025 RMK A01 T00960066  RH  081%=      5-min Rain = 0
KHA2 091516Z 31006KT 10/07 A3025 RMK A01 T00980067  RH  082%=      5-min Rain = 0
KHA2 091517Z 30007KT 10/07 A3025 RMK A01 T00980066  RH  081%=      5-min Rain = 0
KHA2 091518Z 30007KT 10/07 A3025 RMK A01 T00980065  RH  080%=      5-min Rain = 0
KHA2 091519Z 30007KT 10/07 A3025 RMK A01 T00990066  RH  080%=      5-min Rain = 0
KHA2 091520Z 30007KT 10/07 A3025 RMK A01 T00990067  RH  080%=      5-min Rain = 0
KHA2 091521Z 30005KT 10/07 A3025 RMK A01 T01010071  RH  082%=      5-min Rain = 0
KHA2 091522Z 29005KT 10/07 A3025 RMK A01 T01030073  RH  082%=      5-min Rain = 0
KHA2 091523Z 29006KT 10/07 A3025 RMK A01 T01040069  RH  079%=      5-min Rain = 0
KHA2 091524Z 29006KT 10/07 A3025 RMK A01 T01030067  RH  078%=      5-min Rain = 0
KHA2 091525Z 29005KT 10/07 A3025 RMK A01 T01030068  RH  079%=      5-min Rain = 0
KHA2 091526Z 29005KT 10/07 A3025 RMK A01 T01040068  RH  078%=      5-min Rain = 0
KHA2 091527Z 28005KT 11/07 A3025 RMK A01 T01050069  RH  078%=      5-min Rain = 0
KHA2 091528Z 27004KT 11/07 A3025 RMK A01 T01070069  RH  077%=      5-min Rain = 0
KHA2 091529Z 27003KT 11/07 A3025 RMK A01 T01080074  RH  079%=      5-min Rain = 0
KHA2 091530Z 29004KT 11/08 A3025 RMK A01 T01100076  RH  079%=      5-min Rain = 0
KHA2 091531Z 29004KT 11/08 A3025 RMK A01 T01120075  RH  078%=      5-min Rain = 0
KHA2 091532Z 29003KT 11/08 A3025 RMK A01 T01130075  RH  078%=      5-min Rain = 0
KHA2 091533Z 29004KT 11/08 A3025 RMK A01 T01140076  RH  078%=      5-min Rain = 0
KHA2 091534Z 30004KT 12/08 A3025 RMK A01 T01150075  RH  076%=      5-min Rain = 0
KHA2 091535Z 31004KT 12/07 A3025 RMK A01 T01150072  RH  075%=      5-min Rain = 0
KHA2 091536Z 30003KT 12/07 A3025 RMK A01 T01160074  RH  075%=      5-min Rain = 0
KHA2 091537Z 30004KT 12/07 A3025 RMK A01 T01160071  RH  074%=      5-min Rain = 0
KHA2 091538Z 29003KT 12/07 A3025 RMK A01 T01160074  RH  075%=      5-min Rain = 0
KHA2 091539Z 29004KT 12/08 A3025 RMK A01 T01170075  RH  075%=      5-min Rain = 0
KHA2 091540Z 28004KT 12/08 A3025 RMK A01 T01170075  RH  075%=      5-min Rain = 0
KHA2 091541Z 30004KT 12/08 A3025 RMK A01 T01170075  RH  076%=      5-min Rain = 0
KHA2 091542Z 30005KT 12/08 A3025 RMK A01 T01180078  RH  076%=      5-min Rain = 0
KHA2 091543Z 29004KT 12/08 A3025 RMK A01 T01180077  RH  076%=      5-min Rain = 0
KHA2 091544Z 28004KT 12/08 A3025 RMK A01 T01190077  RH  075%=      5-min Rain = 0
KHA2 091545Z 28004KT 12/08 A3025 RMK A01 T01200076  RH  074%=      5-min Rain = 0
KHA2 091546Z 29004KT 12/08 A3025 RMK A01 T01200077  RH  075%=      5-min Rain = 0
KHA2 091547Z 28005KT 12/08 A3025 RMK A01 T01210077  RH  075%=      5-min Rain = 0
KHA2 091548Z 28004KT 12/07 A3025 RMK A01 T01210074  RH  073%=      5-min Rain = 0
KHA2 091549Z 28005KT 12/07 A3025 RMK A01 T01210073  RH  073%=      5-min Rain = 0
KHA2 091550Z 29004KT 12/08 A3025 RMK A01 T01210075  RH  073%=      5-min Rain = 0
KHA2 091551Z 28004KT 12/08 A3025 RMK A01 T01220075  RH  073%=      5-min Rain = 0
KHA2 091552Z 28003KT 12/07 A3025 RMK A01 T01230074  RH  072%=      5-min Rain = 0
KHA2 091553Z 29003KT 12/08 A3026 RMK A01 T01230076  RH  073%=      5-min Rain = 0
KHA2 091554Z 30003KT 13/08 A3026 RMK A01 T01250079  RH  073%=      5-min Rain = 0
KHA2 091555Z 28003KT 13/08 A3026 RMK A01 T01250078  RH  073%=      5-min Rain = 0
KHA2 091556Z 31004KT 13/08 A3026 RMK A01 T01260081  RH  074%=      5-min Rain = 0
KHA2 091557Z 31004KT 13/08 A3026 RMK A01 T01270081  RH  073%=      5-min Rain = 0
KHA2 091558Z 31003KT 13/08 A3026 RMK A01 T01270080  RH  073%=      5-min Rain = 0
KHA2 091559Z 31004KT 13/08 A3025 RMK A01 T01280082  RH  073%=      5-min Rain = 0
KHA2 091600Z 31003KT 13/09 A3025 RMK A01 T01290085  RH  075%=      5-min Rain = 0
KHA2 091601Z 29004KT 13/09 A3025 RMK A01 T01310086  RH  075%=      5-min Rain = 0
KHA2 091602Z 29003KT 13/08 A3025 RMK A01 T01310080  RH  071%=      5-min Rain = 0
KHA2 091603Z 29003KT 13/08 A3025 RMK A01 T01300079  RH  071%=      5-min Rain = 0
KHA2 091604Z 30004KT 13/08 A3025 RMK A01 T01300079  RH  071%=      5-min Rain = 0
KHA2 091605Z 28003KT 13/08 A3025 RMK A01 T01300080  RH  072%=      5-min Rain = 0
KHA2 091606Z 28004KT 13/08 A3025 RMK A01 T01310082  RH  072%=      5-min Rain = 0
KHA2 091607Z 29004KT 13/08 A3025 RMK A01 T01320084  RH  072%=      5-min Rain = 0
KHA2 091608Z 29004KT 13/08 A3025 RMK A01 T01330081  RH  070%=      5-min Rain = 0
KHA2 091609Z 30003KT 13/08 A3025 RMK A01 T01330082  RH  071%=      5-min Rain = 0
KHA2 091610Z 30004KT 13/08 A3025 RMK A01 T01340081  RH  071%=      5-min Rain = 0
KHA2 091611Z 29004KT 14/08 A3025 RMK A01 T01350084  RH  071%=      5-min Rain = 0
KHA2 091612Z 27004KT 14/08 A3025 RMK A01 T01350083  RH  071%=      5-min Rain = 0
KHA2 091613Z 29005KT 14/08 A3025 RMK A01 T01360083  RH  070%=      5-min Rain = 0
KHA2 091614Z 27005KT 14/08 A3025 RMK A01 T01360083  RH  070%=      5-min Rain = 0
KHA2 091615Z 28004KT 14/09 A3025 RMK A01 T01360085  RH  071%=      5-min Rain = 0
KHA2 091616Z 29004KT 14/09 A3025 RMK A01 T01370085  RH  071%=      5-min Rain = 0
KHA2 091617Z 30003KT 14/08 A3025 RMK A01 T01370083  RH  070%=      5-min Rain = 0
KHA2 091618Z 29005KT 14/08 A3025 RMK A01 T01370084  RH  070%=      5-min Rain = 0
KHA2 091619Z 28004KT 14/08 A3025 RMK A01 T01380083  RH  069%=      5-min Rain = 0
KHA2 091620Z 28004KT 14/08 A3025 RMK A01 T01390083  RH  069%=      5-min Rain = 0
KHA2 091621Z 28004KT 14/08 A3025 RMK A01 T01390083  RH  069%=      5-min Rain = 0
KHA2 091622Z 28004KT 14/09 A3025 RMK A01 T01390085  RH  069%=      5-min Rain = 0
KHA2 091623Z 28003KT 14/09 A3025 RMK A01 T01400085  RH  069%=      5-min Rain = 0
KHA2 091624Z 28003KT 14/09 A3025 RMK A01 T01410085  RH  069%=      5-min Rain = 0
KHA2 091625Z 28004KT 14/08 A3025 RMK A01 T01410082  RH  067%=      5-min Rain = 0
KHA2 091626Z 29003KT 14/08 A3025 RMK A01 T01420083  RH  068%=      5-min Rain = 0
KHA2 091627Z 29003KT 14/08 A3025 RMK A01 T01430083  RH  067%=      5-min Rain = 0
KHA2 091628Z 28003KT 14/08 A3025 RMK A01 T01440081  RH  066%=      5-min Rain = 0
KHA2 091629Z 28004KT 15/08 A3025 RMK A01 T01450078  RH  064%=      5-min Rain = 0
KHA2 091630Z 29002KT 15/08 A3025 RMK A01 T01450078  RH  064%=      5-min Rain = 0
KHA2 091631Z 31003KT 15/08 A3025 RMK A01 T01460081  RH  065%=      5-min Rain = 0
KHA2 091632Z 31003KT 15/08 A3025 RMK A01 T01470082  RH  065%=      5-min Rain = 0
KHA2 091633Z 31002KT 15/08 A3025 RMK A01 T01480083  RH  065%=      5-min Rain = 0
KHA2 091634Z 33002KT 15/08 A3025 RMK A01 T01500083  RH  064%=      5-min Rain = 0
KHA2 091635Z 29002KT 15/08 A3025 RMK A01 T01510084  RH  064%=      5-min Rain = 0
KHA2 091636Z 29003KT 15/08 A3025 RMK A01 T01520084  RH  064%=      5-min Rain = 0
KHA2 091637Z 29002KT 15/08 A3025 RMK A01 T01520083  RH  063%=      5-min Rain = 0
KHA2 091638Z 27003KT 15/08 A3025 RMK A01 T01530076  RH  060%=      5-min Rain = 0
KHA2 091639Z 28003KT 15/08 A3025 RMK A01 T01540080  RH  061%=      5-min Rain = 0
KHA2 091640Z 28002KT 16/09 A3025 RMK A01 T01550085  RH  063%=      5-min Rain = 0
KHA2 091641Z 29002KT 16/09 A3025 RMK A01 T01560087  RH  063%=      5-min Rain = 0
KHA2 091642Z 30003KT 16/08 A3025 RMK A01 T01570082  RH  061%=      5-min Rain = 0
KHA2 091643Z 30002KT 16/08 A3025 RMK A01 T01570082  RH  061%=      5-min Rain = 0
KHA2 091644Z 28003KT 16/08 A3025 RMK A01 T01570080  RH  060%=      5-min Rain = 0
KHA2 091645Z 28002KT 16/08 A3025 RMK A01 T01580077  RH  059%=      5-min Rain = 0
KHA2 091646Z 26003KT 16/08 A3025 RMK A01 T01590076  RH  058%=      5-min Rain = 0
KHA2 091647Z 25002KT 16/07 A3025 RMK A01 T01590071  RH  056%=      5-min Rain = 0
KHA2 091648Z 27003KT 16/08 A3025 RMK A01 T01600075  RH  057%=      5-min Rain = 0
KHA2 091649Z 26002KT 16/08 A3025 RMK A01 T01600076  RH  058%=      5-min Rain = 0
KHA2 091650Z 24003KT 16/08 A3025 RMK A01 T01610076  RH  057%=      5-min Rain = 0
KHA2 091651Z 24003KT 16/08 A3025 RMK A01 T01640075  RH  056%=      5-min Rain = 0
KHA2 091652Z 26003KT 16/06 A3024 RMK A01 T01640062  RH  051%=      5-min Rain = 0
KHA2 091653Z 26003KT 16/06 A3024 RMK A01 T01640055  RH  048%=      5-min Rain = 0
KHA2 091654Z 25003KT 16/06 A3024 RMK A01 T01640058  RH  049%=      5-min Rain = 0
KHA2 091655Z 26004KT 17/06 A3024 RMK A01 T01650057  RH  049%=      5-min Rain = 0
KHA2 091656Z 25004KT 17/06 A3024 RMK A01 T01660061  RH  050%=      5-min Rain = 0
KHA2 091657Z 25003KT 17/06 A3024 RMK A01 T01660061  RH  050%=      5-min Rain = 0
KHA2 091658Z 26003KT 17/06 A3024 RMK A01 T01650064  RH  051%=      5-min Rain = 0
KHA2 091659Z 27004KT 17/06 A3024 RMK A01 T01660063  RH  051%=      5-min Rain = 0
KHA2 091700Z 26004KT 17/07 A3024 RMK A01 T01660068  RH  052%=      5-min Rain = 0
KHA2 091701Z 23004KT 17/07 A3024 RMK A01 T01680071  RH  053%=      5-min Rain = 0
KHA2 091702Z 23004KT 17/07 A3024 RMK A01 T01700072  RH  053%=      5-min Rain = 0
KHA2 091703Z 23004KT 17/08 A3024 RMK A01 T01710076  RH  053%=      5-min Rain = 0
KHA2 091704Z 23003KT 17/07 A3024 RMK A01 T01730072  RH  051%=      5-min Rain = 0
KHA2 091705Z 24004KT 17/07 A3024 RMK A01 T01720070  RH  051%=      5-min Rain = 0
KHA2 091706Z 24003KT 17/07 A3024 RMK A01 T01720071  RH  051%=      5-min Rain = 0
KHA2 091707Z 24005KT 17/07 A3024 RMK A01 T01730070  RH  051%=      5-min Rain = 0
KHA2 091708Z 24005KT 17/07 A3024 RMK A01 T01740067  RH  049%=      5-min Rain = 0
KHA2 091709Z 23004KT 18/07 A3024 RMK A01 T01750069  RH  050%=      5-min Rain = 0
KHA2 091710Z 23002KT 18/07 A3024 RMK A01 T01760065  RH  048%=      5-min Rain = 0
KHA2 091711Z 25004KT 18/07 A3024 RMK A01 T01760066  RH  048%=      5-min Rain = 0
KHA2 091712Z 22006KT 18/06 A3024 RMK A01 T01770064  RH  048%=      5-min Rain = 0
KHA2 091713Z 22006KT 18/07 A3024 RMK A01 T01790066  RH  048%=      5-min Rain = 0
KHA2 091714Z 24004KT 18/07 A3024 RMK A01 T01800070  RH  048%=      5-min Rain = 0
KHA2 091715Z 24004KT 18/06 A3024 RMK A01 T01810063  RH  046%=      5-min Rain = 0
KHA2 091716Z 23004KT 18/07 A3024 RMK A01 T01800065  RH  047%=      5-min Rain = 0
KHA2 091717Z 21004KT 18/07 A3024 RMK A01 T01800067  RH  048%=      5-min Rain = 0
KHA2 091718Z 20003KT 18/06 A3024 RMK A01 T01800064  RH  047%=      5-min Rain = 0
KHA2 091719Z 21002KT 18/06 A3024 RMK A01 T01800062  RH  046%=      5-min Rain = 0
KHA2 091720Z 21003KT 18/07 A3024 RMK A01 T01810069  RH  048%=      5-min Rain = 0
KHA2 091721Z 21004KT 18/07 A3024 RMK A01 T01830073  RH  048%=      5-min Rain = 0
KHA2 091722Z 25002KT 18/07 A3024 RMK A01 T01840067  RH  047%=      5-min Rain = 0
KHA2 091723Z 18003KT 18/07 A3024 RMK A01 T01840074  RH  049%=      5-min Rain = 0
KHA2 091724Z 22004KT 19/08 A3024 RMK A01 T01870076  RH  049%=      5-min Rain = 0
KHA2 091725Z 22004KT 19/07 A3024 RMK A01 T01890069  RH  046%=      5-min Rain = 0
KHA2 091726Z 20005KT 19/07 A3024 RMK A01 T01880065  RH  045%=      5-min Rain = 0
KHA2 091727Z 20003KT 19/06 A3024 RMK A01 T01870061  RH  044%=      5-min Rain = 0
KHA2 091728Z 21003KT 19/06 A3024 RMK A01 T01870064  RH  045%=      5-min Rain = 0
KHA2 091729Z 22004KT 19/07 A3024 RMK A01 T01870066  RH  045%=      5-min Rain = 0
KHA2 091730Z 22005KT 19/07 A3024 RMK A01 T01880065  RH  045%=      5-min Rain = 0
KHA2 091731Z 21004KT 19/06 A3024 RMK A01 T01870058  RH  043%=      5-min Rain = 0
KHA2 091732Z 22005KT 19/06 A3024 RMK A01 T01870061  RH  044%=      5-min Rain = 0
KHA2 091733Z 20003KT 19/05 A3023 RMK A01 T01870051  RH  041%=      5-min Rain = 0
KHA2 091734Z 19003KT 19/05 A3023 RMK A01 T01870052  RH  041%=      5-min Rain = 0
KHA2 091735Z 20004KT 19/06 A3023 RMK A01 T01890055  RH  041%=      5-min Rain = 0
KHA2 091736Z 23005KT 19/06 A3023 RMK A01 T01900060  RH  043%=      5-min Rain = 0
KHA2 091737Z 22003KT 19/06 A3023 RMK A01 T01890060  RH  043%=      5-min Rain = 0
KHA2 091738Z 21003KT 19/06 A3023 RMK A01 T01890060  RH  043%=      5-min Rain = 0
KHA2 091739Z 22006KT 19/06 A3023 RMK A01 T01920057  RH  041%=      5-min Rain = 0
KHA2 091740Z 21006KT 19/06 A3023 RMK A01 T01910060  RH  042%=      5-min Rain = 0
KHA2 091741Z 21005KT 19/06 A3023 RMK A01 T01920056  RH  041%=      5-min Rain = 0
KHA2 091742Z 20003KT 19/05 A3023 RMK A01 T01910052  RH  040%=      5-min Rain = 0
KHA2 091743Z 21005KT 19/05 A3023 RMK A01 T01900051  RH  040%=      5-min Rain = 0
KHA2 091744Z 21004KT 19/05 A3023 RMK A01 T01900051  RH  040%=      5-min Rain = 0
KHA2 091745Z 20006KT 19/05 A3023 RMK A01 T01930053  RH  040%=      5-min Rain = 0
KHA2 091746Z 21005KT 19/05 A3023 RMK A01 T01940054  RH  040%=      5-min Rain = 0
KHA2 091747Z 20008KT 20/05 A3023 RMK A01 T01950048  RH  038%=      5-min Rain = 0
KHA2 091748Z 20007KT 19/04 A3023 RMK A01 T01940038  RH  035%=      5-min Rain = 0
KHA2 091749Z 21006KT 19/04 A3023 RMK A01 T01930038  RH  036%=      5-min Rain = 0
KHA2 091750Z 19006KT 19/05 A3023 RMK A01 T01930045  RH  038%=      5-min Rain = 0
KHA2 091751Z 21007KT 20/05 A3023 RMK A01 T01970054  RH  039%=      5-min Rain = 0
KHA2 091752Z 21006KT 20/05 A3023 RMK A01 T01980048  RH  037%=      5-min Rain = 0
KHA2 091753Z 20005KT 20/04 A3023 RMK A01 T01950039  RH  035%=      5-min Rain = 0
KHA2 091754Z 19007KT 19/04 A3023 RMK A01 T01940041  RH  036%=      5-min Rain = 0
KHA2 091755Z 20007KT 20/05 A3023 RMK A01 T01960045  RH  037%=      5-min Rain = 0
KHA2 091756Z 20007KT 20/04 A3023 RMK A01 T01970038  RH  035%=      5-min Rain = 0
KHA2 091757Z 19006KT 20/04 A3023 RMK A01 T01960038  RH  035%=      5-min Rain = 0
KHA2 091758Z 20006KT 20/04 A3022 RMK A01 T01950038  RH  035%=      5-min Rain = 0
KHA2 091759Z 21007KT 19/04 A3022 RMK A01 T01940042  RH  036%=      5-min Rain = 0
KHA2 091800Z 21007KT 20/04 A3022 RMK A01 T01950043  RH  037%=      5-min Rain = 0
KHA2 091801Z 20005KT 20/04 A3022 RMK A01 T01950040  RH  036%=      5-min Rain = 0
KHA2 091802Z 18004KT 20/05 A3022 RMK A01 T01960046  RH  037%=      5-min Rain = 0
KHA2 091803Z 22005KT 20/06 A3022 RMK A01 T01990058  RH  040%=      5-min Rain = 0
KHA2 091804Z 21006KT 20/06 A3022 RMK A01 T02010055  RH  038%=      5-min Rain = 0
KHA2 091805Z 22005KT 20/05 A3022 RMK A01 T02010053  RH  038%=      5-min Rain = 0
KHA2 091806Z 22007KT 20/05 A3022 RMK A01 T02010053  RH  038%=      5-min Rain = 0
KHA2 091807Z 22007KT 20/05 A3022 RMK A01 T02010046  RH  036%=      5-min Rain = 0
KHA2 091808Z 22006KT 20/05 A3022 RMK A01 T02000048  RH  037%=      5-min Rain = 0
KHA2 091809Z 21005KT 20/05 A3022 RMK A01 T01980049  RH  038%=      5-min Rain = 0
KHA2 091810Z 21007KT 20/05 A3022 RMK A01 T01980048  RH  037%=      5-min Rain = 0
KHA2 091811Z 20006KT 20/04 A3022 RMK A01 T01980044  RH  036%=      5-min Rain = 0
KHA2 091812Z 19005KT 20/05 A3022 RMK A01 T01990045  RH  036%=      5-min Rain = 0
KHA2 091813Z 20005KT 20/05 A3022 RMK A01 T01990045  RH  036%=      5-min Rain = 0
KHA2 091814Z 21006KT 20/04 A3022 RMK A01 T02000043  RH  036%=      5-min Rain = 0
KHA2 091815Z 23004KT 20/04 A3022 RMK A01 T01990043  RH  036%=      5-min Rain = 0
KHA2 091816Z 23007KT 20/05 A3022 RMK A01 T02000048  RH  037%=      5-min Rain = 0
KHA2 091817Z 23007KT 20/05 A3022 RMK A01 T02000049  RH  037%=      5-min Rain = 0
KHA2 091818Z 21006KT 20/04 A3022 RMK A01 T02010043  RH  036%=      5-min Rain = 0
KHA2 091819Z 21004KT 20/04 A3021 RMK A01 T01990043  RH  036%=      5-min Rain = 0
KHA2 091820Z 20005KT 20/04 A3021 RMK A01 T01990042  RH  036%=      5-min Rain = 0
KHA2 091821Z 22004KT 20/05 A3021 RMK A01 T02000045  RH  036%=      5-min Rain = 0
KHA2 091822Z 23006KT 20/04 A3021 RMK A01 T02000044  RH  036%=      5-min Rain = 0
KHA2 091823Z 23007KT 20/04 A3021 RMK A01 T02010037  RH  034%=      5-min Rain = 0
KHA2 091824Z 23005KT 20/03 A3021 RMK A01 T02010030  RH  032%=      5-min Rain = 0
KHA2 091825Z 23006KT 20/04 A3021 RMK A01 T02020041  RH  035%=      5-min Rain = 0
KHA2 091826Z 22006KT 20/04 A3021 RMK A01 T02020043  RH  035%=      5-min Rain = 0
KHA2 091827Z 21006KT 20/04 A3021 RMK A01 T02020043  RH  035%=      5-min Rain = 0
KHA2 091828Z 23005KT 20/04 A3021 RMK A01 T02030042  RH  035%=      5-min Rain = 0
KHA2 091829Z 22006KT 20/04 A3021 RMK A01 T02020037  RH  034%=      5-min Rain = 0
KHA2 091830Z 19005KT 20/04 A3021 RMK A01 T02010036  RH  034%=      5-min Rain = 0
KHA2 091831Z 21004KT 20/04 A3021 RMK A01 T02010035  RH  033%=      5-min Rain = 0
KHA2 091832Z 22004KT 20/04 A302 RMK A01 T02020037  RH  034%=      5-min Rain = 0
KHA2 091833Z 23005KT 20/04 A302 RMK A01 T02030038  RH  034%=      5-min Rain = 0
KHA2 091834Z 23004KT 20/03 A302 RMK A01 T02040034  RH  033%=      5-min Rain = 0
KHA2 091835Z 23002KT 20/03 A302 RMK A01 T02020031  RH  032%=      5-min Rain = 0
KHA2 091836Z 23002KT 20/04 A302 RMK A01 T02020036  RH  033%=      5-min Rain = 0
KHA2 091837Z 23003KT 20/04 A302 RMK A01 T02030044  RH  035%=      5-min Rain = 0
KHA2 091838Z 24005KT 21/04 A302 RMK A01 T02060042  RH  034%=      5-min Rain = 0
KHA2 091839Z 24004KT 21/03 A302 RMK A01 T02060034  RH  032%=      5-min Rain = 0
KHA2 091840Z 19006KT 21/04 A302 RMK A01 T02070041  RH  034%=      5-min Rain = 0
KHA2 091841Z 23005KT 21/04 A302 RMK A01 T02080043  RH  034%=      5-min Rain = 0
KHA2 091842Z 23003KT 21/04 A302 RMK A01 T02080038  RH  033%=      5-min Rain = 0
KHA2 091843Z 20005KT 21/04 A302 RMK A01 T02070038  RH  033%=      5-min Rain = 0
KHA2 091844Z 19006KT 21/03 A3019 RMK A01 T02080033  RH  032%=      5-min Rain = 0
KHA2 091845Z 19006KT 21/03 A3019 RMK A01 T02090025  RH  030%=      5-min Rain = 0
KHA2 091846Z 18006KT 21/03 A3019 RMK A01 T02110027  RH  030%=      5-min Rain = 0
KHA2 091847Z 22006KT 21/03 A3019 RMK A01 T02120034  RH  031%=      5-min Rain = 0
KHA2 091848Z 24005KT 21/02 A3019 RMK A01 T02120019  RH  028%=      5-min Rain = 0
KHA2 091849Z 22007KT 21/03 A3019 RMK A01 T02110029  RH  030%=      5-min Rain = 0
KHA2 091850Z 21007KT 21/03 A3019 RMK A01 T02110032  RH  031%=      5-min Rain = 0
KHA2 091851Z 21004KT 21/03 A3019 RMK A01 T02100034  RH  031%=      5-min Rain = 0
KHA2 091852Z 22005KT 21/03 A3019 RMK A01 T02100034  RH  031%=      5-min Rain = 0
KHA2 091853Z 20006KT 21/04 A3019 RMK A01 T02120040  RH  032%=      5-min Rain = 0
KHA2 091854Z 22005KT 21/04 A3019 RMK A01 T02130037  RH  031%=      5-min Rain = 0
KHA2 091855Z 19005KT 21/04 A3019 RMK A01 T02140039  RH  032%=      5-min Rain = 0
KHA2 091856Z 18005KT 21/03 A3019 RMK A01 T02140032  RH  030%=      5-min Rain = 0
KHA2 091857Z 24005KT 21/03 A3018 RMK A01 T02140034  RH  031%=      5-min Rain = 0
KHA2 091858Z 22007KT 21/03 A3018 RMK A01 T02130030  RH  030%=      5-min Rain = 0
KHA2 091859Z 19005KT 21/04 A3018 RMK A01 T02120037  RH  032%=      5-min Rain = 0
KHA2 091900Z 18006KT 21/04 A3018 RMK A01 T02140036  RH  031%=      5-min Rain = 0
KHA2 091901Z 19006KT 22/04 A3018 RMK A01 T02150036  RH  031%=      5-min Rain = 0
KHA2 091902Z 21005KT 22/04 A3018 RMK A01 T02150035  RH  031%=      5-min Rain = 0
KHA2 091903Z 22004KT 21/03 A3018 RMK A01 T02140033  RH  030%=      5-min Rain = 0
KHA2 091904Z 22005KT 21/04 A3018 RMK A01 T02130036  RH  031%=      5-min Rain = 0
KHA2 091905Z 23007KT 21/03 A3018 RMK A01 T02130030  RH  030%=      5-min Rain = 0
KHA2 091906Z 23007KT 21/02 A3018 RMK A01 T02130017  RH  027%=      5-min Rain = 0
KHA2 091907Z 24007KT 21/02 A3018 RMK A01 T02120019  RH  028%=      5-min Rain = 0
KHA2 091908Z 24006KT 21/02 A3018 RMK A01 T02130022  RH  028%=      5-min Rain = 0
KHA2 091909Z 23007KT 21/02 A3018 RMK A01 T02140022  RH  028%=      5-min Rain = 0
KHA2 091910Z 23007KT 22/03 A3017 RMK A01 T02150034  RH  030%=      5-min Rain = 0
KHA2 091911Z 23006KT 22/03 A3017 RMK A01 T02160028  RH  029%=      5-min Rain = 0
KHA2 091912Z 21005KT 22/03 A3017 RMK A01 T02150028  RH  029%=      5-min Rain = 0
KHA2 091913Z 22005KT 22/02 A3017 RMK A01 T02150021  RH  028%=      5-min Rain = 0
KHA2 091914Z 20003KT 21/02 A3017 RMK A01 T02140020  RH  028%=      5-min Rain = 0
KHA2 091915Z 21007KT 22/03 A3017 RMK A01 T02150026  RH  029%=      5-min Rain = 0
KHA2 091916Z 20006KT 22/04 A3017 RMK A01 T02170039  RH  031%=      5-min Rain = 0
KHA2 091917Z 19006KT 22/03 A3017 RMK A01 T02180033  RH  030%=      5-min Rain = 0
KHA2 091918Z 20006KT 22/04 A3017 RMK A01 T02180037  RH  030%=      5-min Rain = 0
KHA2 091919Z 20005KT 22/03 A3017 RMK A01 T02190034  RH  030%=      5-min Rain = 0
KHA2 091920Z 18005KT 22/04 A3017 RMK A01 T02190035  RH  030%=      5-min Rain = 0
KHA2 091921Z 18005KT 22/03 A3017 RMK A01 T02190034  RH  030%=      5-min Rain = 0
KHA2 091922Z 17003KT 22/03 A3017 RMK A01 T02180033  RH  030%=      5-min Rain = 0
KHA2 091923Z 19003KT 22/04 A3017 RMK A01 T02190040  RH  031%=      5-min Rain = 0
KHA2 091924Z 22005KT 22/04 A3017 RMK A01 T02210041  RH  031%=      5-min Rain = 0
KHA2 091925Z 20008KT 22/04 A3017 RMK A01 T02220043  RH  031%=      5-min Rain = 0
KHA2 091926Z 20008KT 22/04 A3016 RMK A01 T02220038  RH  030%=      5-min Rain = 0
KHA2 091927Z 20007KT 22/04 A3016 RMK A01 T02210038  RH  030%=      5-min Rain = 0
KHA2 091928Z 23006KT 22/03 A3016 RMK A01 T02190032  RH  029%=      5-min Rain = 0
KHA2 091929Z 22006KT 22/03 A3016 RMK A01 T02180026  RH  028%=      5-min Rain = 0
KHA2 091930Z 23006KT 22/03 A3016 RMK A01 T02180030  RH  029%=      5-min Rain = 0
KHA2 091931Z 24005KT 22/03 A3016 RMK A01 T02180026  RH  028%=      5-min Rain = 0
KHA2 091932Z 20007KT 22/04 A3016 RMK A01 T02180035  RH  030%=      5-min Rain = 0
KHA2 091933Z 20008KT 22/05 A3016 RMK A01 T02210045  RH  032%=      5-min Rain = 0
KHA2 091934Z 20006KT 22/04 A3016 RMK A01 T02230042  RH  031%=      5-min Rain = 0
KHA2 091935Z 19006KT 22/05 A3016 RMK A01 T02240047  RH  031%=      5-min Rain = 0
KHA2 091936Z 21007KT 23/03 A3016 RMK A01 T02250030  RH  028%=      5-min Rain = 0
KHA2 091937Z 20009KT 22/03 A3016 RMK A01 T02230032  RH  029%=      5-min Rain = 0
KHA2 091938Z 19006KT 22/04 A3016 RMK A01 T02200037  RH  030%=      5-min Rain = 0
KHA2 091939Z 21005KT 22/04 A3016 RMK A01 T02200036  RH  030%=      5-min Rain = 0
KHA2 091940Z 21004KT 22/05 A3016 RMK A01 T02220047  RH  032%=      5-min Rain = 0
KHA2 091941Z 19006KT 22/04 A3016 RMK A01 T02240041  RH  030%=      5-min Rain = 0
KHA2 091942Z 20005KT 22/03 A3016 RMK A01 T02240033  RH  029%=      5-min Rain = 0
KHA2 091943Z 25005KT 22/03 A3016 RMK A01 T02230030  RH  028%=      5-min Rain = 0
KHA2 091944Z 22005KT 22/03 A3016 RMK A01 T02220032  RH  029%=      5-min Rain = 0
KHA2 091945Z 25006KT 22/04 A3016 RMK A01 T02210035  RH  029%=      5-min Rain = 0
KHA2 091946Z 23006KT 22/05 A3016 RMK A01 T02200046  RH  032%=      5-min Rain = 0
KHA2 091947Z 24008KT 22/04 A3015 RMK A01 T02210043  RH  031%=      5-min Rain = 0
KHA2 091948Z 24009KT 22/05 A3015 RMK A01 T02210045  RH  032%=      5-min Rain = 0
KHA2 091949Z 23010KT 22/04 A3015 RMK A01 T02200042  RH  031%=      5-min Rain = 0
KHA2 091950Z 22009KT 22/04 A3015 RMK A01 T02180040  RH  031%=      5-min Rain = 0
KHA2 091951Z 20008KT 22/04 A3015 RMK A01 T02180037  RH  031%=      5-min Rain = 0
KHA2 091952Z 23006KT 22/04 A3015 RMK A01 T02170035  RH  030%=      5-min Rain = 0
KHA2 091953Z 21008KT 22/03 A3015 RMK A01 T02170032  RH  030%=      5-min Rain = 0
KHA2 091954Z 21009KT 22/03 A3015 RMK A01 T02180034  RH  030%=      5-min Rain = 0
KHA2 091955Z 23005KT 22/04 A3015 RMK A01 T02200035  RH  030%=      5-min Rain = 0
KHA2 091956Z 23008KT 22/03 A3015 RMK A01 T02210028  RH  028%=      5-min Rain = 0
KHA2 091957Z 22009KT 22/03 A3015 RMK A01 T02210029  RH  028%=      5-min Rain = 0
KHA2 091958Z 23007KT 22/02 A3015 RMK A01 T02210023  RH  027%=      5-min Rain = 0
KHA2 091959Z 24008KT 22/03 A3015 RMK A01 T02200032  RH  029%=      5-min Rain = 0
KHA2 092000Z 22007KT 22/03 A3015 RMK A01 T02200033  RH  029%=      5-min Rain = 0
KHA2 092001Z 22008KT 22/04 A3015 RMK A01 T02200042  RH  031%=      5-min Rain = 0
KHA2 092002Z 22008KT 22/04 A3015 RMK A01 T02210042  RH  031%=      5-min Rain = 0
KHA2 092003Z 24008KT 22/04 A3015 RMK A01 T02220036  RH  030%=      5-min Rain = 0
KHA2 092004Z 25008KT 22/03 A3015 RMK A01 T02200033  RH  029%=      5-min Rain = 0
KHA2 092005Z 25008KT 22/03 A3015 RMK A01 T02180032  RH  029%=      5-min Rain = 0
KHA2 092006Z 23010KT 22/04 A3015 RMK A01 T02170038  RH  031%=      5-min Rain = 0
KHA2 092007Z 23008KT 22/04 A3015 RMK A01 T02170038  RH  031%=      5-min Rain = 0
KHA2 092008Z 23007KT 22/04 A3015 RMK A01 T02160037  RH  031%=      5-min Rain = 0
KHA2 092009Z 23009KT 22/04 A3015 RMK A01 T02160038  RH  031%=      5-min Rain = 0
KHA2 092010Z 24008KT 22/03 A3015 RMK A01 T02170034  RH  030%=      5-min Rain = 0
KHA2 092011Z 24009KT 22/04 A3015 RMK A01 T02160035  RH  030%=      5-min Rain = 0
KHA2 092012Z 23008KT 22/03 A3015 RMK A01 T02160032  RH  030%=      5-min Rain = 0
KHA2 092013Z 24010KT 22/04 A3015 RMK A01 T02170042  RH  032%=      5-min Rain = 0
KHA2 092014Z 23009KT 22/04 A3015 RMK A01 T02170038  RH  031%=      5-min Rain = 0
KHA2 092015Z 22009KT 22/04 A3015 RMK A01 T02160044  RH  032%=      5-min Rain = 0
KHA2 092016Z 22007KT 22/04 A3015 RMK A01 T02170044  RH  032%=      5-min Rain = 0
KHA2 092017Z 21008KT 22/05 A3015 RMK A01 T02170051  RH  034%=      5-min Rain = 0
KHA2 092018Z 22009KT 22/05 A3015 RMK A01 T02190048  RH  033%=      5-min Rain = 0
KHA2 092019Z 22009KT 22/05 A3015 RMK A01 T02190047  RH  033%=      5-min Rain = 0
KHA2 092020Z 22008KT 22/05 A3015 RMK A01 T02190051  RH  033%=      5-min Rain = 0
KHA2 092021Z 23010KT 22/05 A3015 RMK A01 T02200048  RH  033%=      5-min Rain = 0
KHA2 092022Z 22007KT 22/05 A3015 RMK A01 T02180049  RH  033%=      5-min Rain = 0
KHA2 092023Z 20008KT 22/05 A3015 RMK A01 T02170053  RH  034%=      5-min Rain = 0
KHA2 092024Z 20010KT 22/05 A3015 RMK A01 T02190048  RH  033%=      5-min Rain = 0
KHA2 092025Z 21009KT 22/04 A3015 RMK A01 T02190044  RH  032%=      5-min Rain = 0
KHA2 092026Z 23010KT 22/04 A3015 RMK A01 T02180044  RH  032%=      5-min Rain = 0
KHA2 092027Z 21011KT 22/05 A3015 RMK A01 T02170047  RH  033%=      5-min Rain = 0
KHA2 092028Z 22010KT 22/04 A3015 RMK A01 T02180041  RH  031%=      5-min Rain = 0
KHA2 092029Z 22009KT 22/04 A3015 RMK A01 T02180043  RH  032%=      5-min Rain = 0
KHA2 092030Z 22007KT 22/04 A3014 RMK A01 T02170037  RH  031%=      5-min Rain = 0
KHA2 092031Z 23009KT 22/04 A3014 RMK A01 T02160041  RH  032%=      5-min Rain = 0
KHA2 092032Z 24010KT 22/04 A3014 RMK A01 T02160043  RH  032%=      5-min Rain = 0
KHA2 092033Z 22009KT 22/04 A3014 RMK A01 T02160044  RH  032%=      5-min Rain = 0
KHA2 092034Z 23007KT 22/04 A3014 RMK A01 T02150035  RH  031%=      5-min Rain = 0
KHA2 092035Z 21009KT 21/04 A3014 RMK A01 T02140038  RH  032%=      5-min Rain = 0
KHA2 092036Z 20010KT 21/04 A3014 RMK A01 T02140036  RH  031%=      5-min Rain = 0
KHA2 092037Z 21013KT 22/04 A3014 RMK A01 T02150040  RH  032%=      5-min Rain = 0
KHA2 092038Z 23011KT 22/03 A3014 RMK A01 T02170033  RH  030%=      5-min Rain = 0
KHA2 092039Z 24009KT 22/03 A3014 RMK A01 T02170031  RH  029%=      5-min Rain = 0
KHA2 092040Z 23008KT 22/03 A3014 RMK A01 T02160029  RH  029%=      5-min Rain = 0
KHA2 092041Z 22007KT 22/04 A3014 RMK A01 T02160040  RH  032%=      5-min Rain = 0
KHA2 092042Z 21008KT 22/04 A3014 RMK A01 T02180042  RH  032%=      5-min Rain = 0
KHA2 092043Z 22008KT 22/05 A3014 RMK A01 T02190045  RH  032%=      5-min Rain = 0
KHA2 092044Z 22009KT 22/04 A3014 RMK A01 T02200043  RH  031%=      5-min Rain = 0
KHA2 092045Z 22011KT 22/04 A3014 RMK A01 T02190035  RH  030%=      5-min Rain = 0
KHA2 092046Z 22008KT 22/03 A3014 RMK A01 T02160029  RH  029%=      5-min Rain = 0
KHA2 092047Z 21008KT 22/03 A3014 RMK A01 T02160026  RH  029%=      5-min Rain = 0
KHA2 092048Z 22009KT 22/03 A3014 RMK A01 T02160028  RH  029%=      5-min Rain = 0
KHA2 092049Z 23009KT 22/03 A3014 RMK A01 T02170033  RH  030%=      5-min Rain = 0
KHA2 092050Z 23010KT 22/03 A3014 RMK A01 T02160033  RH  030%=      5-min Rain = 0
KHA2 092051Z 21008KT 22/03 A3014 RMK A01 T02160033  RH  030%=      5-min Rain = 0
KHA2 092052Z 21010KT 22/03 A3014 RMK A01 T02160031  RH  030%=      5-min Rain = 0
KHA2 092053Z 22011KT 22/03 A3014 RMK A01 T02160031  RH  030%=      5-min Rain = 0
KHA2 092054Z 23011KT 22/03 A3014 RMK A01 T02170026  RH  028%=      5-min Rain = 0
KHA2 092055Z 22010KT 22/01 A3014 RMK A01 T02160014  RH  026%=      5-min Rain = 0
KHA2 092056Z 21009KT 22/01 A3014 RMK A01 T02150010  RH  026%=      5-min Rain = 0
KHA2 092057Z 22008KT 22/01 A3013 RMK A01 T02150009  RH  025%=      5-min Rain = 0
KHA2 092058Z 23010KT 22/01 A3013 RMK A01 T02150011  RH  026%=      5-min Rain = 0
KHA2 092059Z 24008KT 22/00 A3013 RMK A01 T02160004  RH  024%=      5-min Rain = 0
KHA2 092100Z 23008KT 22/00 A3014 RMK A01 T02160002  RH  024%=      5-min Rain = 0
KHA2 092101Z 23009KT 22/M00 A3013 RMK A01 T02161003  RH  023%=      5-min Rain = 0
KHA2 092102Z 23010KT 22/00 A3013 RMK A01 T021700-0  RH  023%=      5-min Rain = 0
KHA2 092103Z 23008KT 22/01 A3013 RMK A01 T02180009  RH  025%=      5-min Rain = 0
KHA2 092104Z 22007KT 22/02 A3013 RMK A01 T02180020  RH  027%=      5-min Rain = 0
KHA2 092105Z 23008KT 22/02 A3013 RMK A01 T02180021  RH  027%=      5-min Rain = 0
KHA2 092106Z 22007KT 22/02 A3013 RMK A01 T02170023  RH  028%=      5-min Rain = 0
KHA2 092107Z 23007KT 22/02 A3013 RMK A01 T02170022  RH  028%=      5-min Rain = 0
KHA2 092108Z 21007KT 22/02 A3013 RMK A01 T02160024  RH  028%=      5-min Rain = 0
KHA2 092109Z 21007KT 22/02 A3013 RMK A01 T02170024  RH  028%=      5-min Rain = 0
KHA2 092110Z 22008KT 22/03 A3013 RMK A01 T02180029  RH  029%=      5-min Rain = 0
KHA2 092111Z 24011KT 22/03 A3013 RMK A01 T02200025  RH  028%=      5-min Rain = 0
KHA2 092112Z 23009KT 22/02 A3013 RMK A01 T02200021  RH  027%=      5-min Rain = 0
KHA2 092113Z 22009KT 22/02 A3013 RMK A01 T02200016  RH  026%=      5-min Rain = 0
KHA2 092114Z 22009KT 22/01 A3013 RMK A01 T02190012  RH  025%=      5-min Rain = 0
KHA2 092115Z 24011KT 22/01 A3013 RMK A01 T02190008  RH  025%=      5-min Rain = 0
KHA2 092116Z 24009KT 22/M00 A3013 RMK A01 T02191002  RH  023%=      5-min Rain = 0
KHA2 092117Z 24009KT 22/M01 A3013 RMK A01 T02181005  RH  023%=      5-min Rain = 0
KHA2 092118Z 25009KT 22/M00 A3013 RMK A01 T02181004  RH  023%=      5-min Rain = 0
KHA2 092119Z 24010KT 22/M00 A3013 RMK A01 T02181003  RH  023%=      5-min Rain = 0
KHA2 092120Z 24009KT 22/M01 A3013 RMK A01 T02181006  RH  022%=      5-min Rain = 0
KHA2 092121Z 24008KT 22/M01 A3013 RMK A01 T02191010  RH  022%=      5-min Rain = 0
KHA2 092122Z 24008KT 22/M01 A3013 RMK A01 T02191005  RH  022%=      5-min Rain = 0
KHA2 092123Z 23010KT 22/M01 A3013 RMK A01 T02191005  RH  022%=      5-min Rain = 0
KHA2 092124Z 22008KT 22/M01 A3013 RMK A01 T02191010  RH  022%=      5-min Rain = 0
KHA2 092125Z 23008KT 22/M01 A3013 RMK A01 T02181007  RH  022%=      5-min Rain = 0
KHA2 092126Z 23009KT 22/00 A3013 RMK A01 T02190001  RH  023%=      5-min Rain = 0
KHA2 092127Z 23008KT 22/M01 A3012 RMK A01 T02201007  RH  022%=      5-min Rain = 0
KHA2 092128Z 22008KT 22/00 A3012 RMK A01 T02200003  RH  024%=      5-min Rain = 0
KHA2 092129Z 22009KT 22/M01 A3012 RMK A01 T02201006  RH  022%=      5-min Rain = 0
KHA2 092130Z 22008KT 22/M01 A3012 RMK A01 T02211010  RH  021%=      5-min Rain = 0
KHA2 092131Z 23009KT 22/M00 A3012 RMK A01 T02201001  RH  023%=      5-min Rain = 0
KHA2 092132Z 23008KT 22/00 A3012 RMK A01 T02210002  RH  023%=      5-min Rain = 0
KHA2 092133Z 23007KT 22/00 A3012 RMK A01 T02200002  RH  023%=      5-min Rain = 0
KHA2 092134Z 22009KT 22/01 A3012 RMK A01 T02190006  RH  024%=      5-min Rain = 0
KHA2 092135Z 22008KT 22/01 A3012 RMK A01 T02190006  RH  024%=      5-min Rain = 0
KHA2 092136Z 21009KT 22/01 A3012 RMK A01 T02190007  RH  024%=      5-min Rain = 0
KHA2 092137Z 21007KT 22/01 A3012 RMK A01 T02200009  RH  025%=      5-min Rain = 0
KHA2 092138Z 21006KT 22/01 A3012 RMK A01 T02200008  RH  024%=      5-min Rain = 0
KHA2 092139Z 24009KT 22/01 A3012 RMK A01 T02210010  RH  025%=      5-min Rain = 0
KHA2 092140Z 23009KT 22/01 A3012 RMK A01 T02210013  RH  025%=      5-min Rain = 0
KHA2 092141Z 23007KT 22/01 A3012 RMK A01 T02200014  RH  026%=      5-min Rain = 0
KHA2 092142Z 22009KT 22/01 A3012 RMK A01 T02200013  RH  025%=      5-min Rain = 0
KHA2 092143Z 23010KT 22/01 A3012 RMK A01 T02210014  RH  025%=      5-min Rain = 0
KHA2 092144Z 22010KT 22/01 A3012 RMK A01 T02200014  RH  025%=      5-min Rain = 0
KHA2 092145Z 22008KT 22/01 A3012 RMK A01 T02190012  RH  025%=      5-min Rain = 0
KHA2 092146Z 23009KT 22/02 A3012 RMK A01 T02190016  RH  026%=      5-min Rain = 0
KHA2 092147Z 24011KT 22/02 A3012 RMK A01 T02200019  RH  027%=      5-min Rain = 0
KHA2 092148Z 23011KT 22/02 A3012 RMK A01 T02200018  RH  026%=      5-min Rain = 0
KHA2 092149Z 24008KT 22/01 A3012 RMK A01 T02190014  RH  026%=      5-min Rain = 0
KHA2 092150Z 24008KT 22/02 A3012 RMK A01 T02190020  RH  027%=      5-min Rain = 0
KHA2 092151Z 25008KT 22/02 A3012 RMK A01 T02190020  RH  027%=      5-min Rain = 0
KHA2 092152Z 24008KT 22/02 A3012 RMK A01 T02190020  RH  027%=      5-min Rain = 0
KHA2 092153Z 22009KT 22/03 A3012 RMK A01 T02190026  RH  028%=      5-min Rain = 0
KHA2 092154Z 22010KT 22/02 A3012 RMK A01 T02200022  RH  027%=      5-min Rain = 0
KHA2 092155Z 22010KT 22/02 A3012 RMK A01 T02210020  RH  027%=      5-min Rain = 0
KHA2 092156Z 22011KT 22/02 A3012 RMK A01 T02200017  RH  026%=      5-min Rain = 0
KHA2 092157Z 23008KT 22/02 A3012 RMK A01 T02180021  RH  027%=      5-min Rain = 0
KHA2 092158Z 23010KT 22/02 A3012 RMK A01 T02180022  RH  027%=      5-min Rain = 0
KHA2 092159Z 23009KT 22/02 A3012 RMK A01 T02190019  RH  027%=      5-min Rain = 0
KHA2 092200Z 23008KT 22/02 A3012 RMK A01 T02190017  RH  026%=      5-min Rain = 0
KHA2 092201Z 23010KT 22/02 A3011 RMK A01 T02190017  RH  026%=      5-min Rain = 0
KHA2 092202Z 23011KT 22/02 A3011 RMK A01 T02190015  RH  026%=      5-min Rain = 0
KHA2 092203Z 23009KT 22/01 A3011 RMK A01 T02190013  RH  026%=      5-min Rain = 0
KHA2 092204Z 23008KT 22/02 A3011 RMK A01 T02180017  RH  026%=      5-min Rain = 0
KHA2 092205Z 22012KT 22/01 A3011 RMK A01 T02180013  RH  026%=      5-min Rain = 0
KHA2 092206Z 22010KT 22/01 A3011 RMK A01 T02180012  RH  025%=      5-min Rain = 0
KHA2 092207Z 22011KT 22/01 A3011 RMK A01 T02180013  RH  026%=      5-min Rain = 0
KHA2 092208Z 23011KT 22/01 A3011 RMK A01 T02180013  RH  026%=      5-min Rain = 0
KHA2 092209Z 24008KT 22/01 A3011 RMK A01 T02180012  RH  026%=      5-min Rain = 0
KHA2 092210Z 24009KT 22/02 A3011 RMK A01 T02180015  RH  026%=      5-min Rain = 0
KHA2 092211Z 23011KT 22/01 A3011 RMK A01 T02180008  RH  025%=      5-min Rain = 0
KHA2 092212Z 23009KT 22/01 A3011 RMK A01 T02180010  RH  025%=      5-min Rain = 0
KHA2 092213Z 23010KT 22/01 A3011 RMK A01 T02170009  RH  025%=      5-min Rain = 0
KHA2 092214Z 23010KT 22/00 A3011 RMK A01 T02170001  RH  024%=      5-min Rain = 0
KHA2 092215Z 23011KT 22/00 A3011 RMK A01 T02170004  RH  024%=      5-min Rain = 0
KHA2 092216Z 24010KT 22/01 A3011 RMK A01 T02170006  RH  025%=      5-min Rain = 0
KHA2 092217Z 23011KT 22/01 A3011 RMK A01 T02160006  RH  025%=      5-min Rain = 0
KHA2 092218Z 23009KT 22/00 A3011 RMK A01 T02160002  RH  024%=      5-min Rain = 0
KHA2 092219Z 23010KT 22/00 A3011 RMK A01 T021600-0  RH  024%=      5-min Rain = 0
KHA2 092220Z 23008KT 22/00 A3011 RMK A01 T02160003  RH  024%=      5-min Rain = 0
KHA2 092221Z 24010KT 22/01 A3011 RMK A01 T02160006  RH  025%=      5-min Rain = 0
KHA2 092222Z 23009KT 22/00 A3011 RMK A01 T02160001  RH  024%=      5-min Rain = 0
KHA2 092223Z 23009KT 22/01 A3011 RMK A01 T02160006  RH  025%=      5-min Rain = 0
KHA2 092224Z 23010KT 22/00 A3011 RMK A01 T02160001  RH  024%=      5-min Rain = 0
KHA2 092225Z 22010KT 22/00 A3011 RMK A01 T02160000  RH  024%=      5-min Rain = 0
KHA2 092226Z 22010KT 22/00 A3011 RMK A01 T02150001  RH  024%=      5-min Rain = 0
KHA2 092227Z 22010KT 22/M00 A3011 RMK A01 T02151001  RH  024%=      5-min Rain = 0
KHA2 092228Z 23009KT 22/M00 A3011 RMK A01 T02151001  RH  024%=      5-min Rain = 0
KHA2 092229Z 24009KT 22/00 A3011 RMK A01 T02150001  RH  024%=      5-min Rain = 0
KHA2 092230Z 24010KT 22/00 A3011 RMK A01 T021500-0  RH  024%=      5-min Rain = 0
KHA2 092231Z 24010KT 21/00 A3011 RMK A01 T021400-0  RH  024%=      5-min Rain = 0
KHA2 092232Z 24010KT 21/M00 A3011 RMK A01 T02141001  RH  024%=      5-min Rain = 0
KHA2 092233Z 23008KT 21/01 A3011 RMK A01 T02130005  RH  025%=      5-min Rain = 0
KHA2 092234Z 24008KT 21/01 A3011 RMK A01 T02130006  RH  025%=      5-min Rain = 0
KHA2 092235Z 24007KT 21/01 A3011 RMK A01 T02120012  RH  026%=      5-min Rain = 0
KHA2 092236Z 24007KT 21/01 A3011 RMK A01 T02120009  RH  026%=      5-min Rain = 0
KHA2 092237Z 24008KT 21/01 A3011 RMK A01 T02120012  RH  026%=      5-min Rain = 0
KHA2 092238Z 23009KT 21/01 A3011 RMK A01 T02120007  RH  026%=      5-min Rain = 0
KHA2 092239Z 23010KT 21/00 A3011 RMK A01 T02120003  RH  025%=      5-min Rain = 0
KHA2 092240Z 23010KT 21/00 A3011 RMK A01 T02120001  RH  024%=      5-min Rain = 0
KHA2 092241Z 23008KT 21/01 A3011 RMK A01 T02130005  RH  025%=      5-min Rain = 0
KHA2 092242Z 22007KT 21/01 A3011 RMK A01 T02110009  RH  026%=      5-min Rain = 0
KHA2 092243Z 22009KT 21/01 A3011 RMK A01 T02100009  RH  026%=      5-min Rain = 0
KHA2 092244Z 22012KT 21/01 A3011 RMK A01 T02100006  RH  026%=      5-min Rain = 0
KHA2 092245Z 22012KT 21/01 A3011 RMK A01 T02100005  RH  025%=      5-min Rain = 0
KHA2 092246Z 23010KT 21/01 A3011 RMK A01 T02090006  RH  026%=      5-min Rain = 0
KHA2 092247Z 22012KT 21/01 A3011 RMK A01 T02090008  RH  026%=      5-min Rain = 0
KHA2 092248Z 23011KT 21/01 A3011 RMK A01 T02080005  RH  026%=      5-min Rain = 0
KHA2 092249Z 23009KT 21/01 A3011 RMK A01 T02080008  RH  026%=      5-min Rain = 0
KHA2 092250Z 23009KT 21/01 A3011 RMK A01 T02070013  RH  027%=      5-min Rain = 0
KHA2 092251Z 23009KT 21/01 A3011 RMK A01 T02060011  RH  027%=      5-min Rain = 0
KHA2 092252Z 23010KT 21/01 A3011 RMK A01 T02060012  RH  027%=      5-min Rain = 0
KHA2 092253Z 23010KT 21/01 A3011 RMK A01 T02050011  RH  027%=      5-min Rain = 0
KHA2 092254Z 23011KT 21/01 A3011 RMK A01 T02050009  RH  027%=      5-min Rain = 0
KHA2 092255Z 22010KT 20/01 A3011 RMK A01 T02040007  RH  027%=      5-min Rain = 0
KHA2 092256Z 22010KT 20/01 A3011 RMK A01 T02040008  RH  027%=      5-min Rain = 0
KHA2 092257Z 22010KT 20/01 A3011 RMK A01 T02030009  RH  027%=      5-min Rain = 0
KHA2 092258Z 22010KT 20/01 A3011 RMK A01 T02030010  RH  028%=      5-min Rain = 0
KHA2 092259Z 22009KT 20/01 A3011 RMK A01 T02020010  RH  028%=      5-min Rain = 0
KHA2 092300Z 22009KT 20/01 A3011 RMK A01 T02010010  RH  028%=      5-min Rain = 0
KHA2 092301Z 22009KT 20/01 A3011 RMK A01 T02010011  RH  028%=      5-min Rain = 0
KHA2 092302Z 22010KT 20/01 A3011 RMK A01 T02000012  RH  029%=      5-min Rain = 0
KHA2 092303Z 23010KT 20/01 A3011 RMK A01 T01990012  RH  029%=      5-min Rain = 0
KHA2 092304Z 23009KT 20/01 A3011 RMK A01 T01980014  RH  029%=      5-min Rain = 0
KHA2 092305Z 23009KT 20/02 A3011 RMK A01 T01970017  RH  030%=      5-min Rain = 0
KHA2 092306Z 23009KT 20/02 A3011 RMK A01 T01950016  RH  030%=      5-min Rain = 0
KHA2 092307Z 23009KT 19/02 A3011 RMK A01 T01940016  RH  030%=      5-min Rain = 0
KHA2 092308Z 23008KT 19/02 A3011 RMK A01 T01930016  RH  031%=      5-min Rain = 0
KHA2 092309Z 23009KT 19/02 A3011 RMK A01 T01920016  RH  031%=      5-min Rain = 0
KHA2 092310Z 23009KT 19/02 A3011 RMK A01 T01900015  RH  031%=      5-min Rain = 0
KHA2 092311Z 23009KT 19/01 A3011 RMK A01 T01890014  RH  031%=      5-min Rain = 0
KHA2 092312Z 23009KT 19/01 A3011 RMK A01 T01880013  RH  031%=      5-min Rain = 0
KHA2 092313Z 23009KT 19/01 A3011 RMK A01 T01870014  RH  031%=      5-min Rain = 0
KHA2 092314Z 23009KT 19/01 A3011 RMK A01 T01870013  RH  031%=      5-min Rain = 0
KHA2 092315Z 23008KT 19/01 A3011 RMK A01 T01860014  RH  032%=      5-min Rain = 0
KHA2 092316Z 23009KT 18/02 A3011 RMK A01 T01840015  RH  032%=      5-min Rain = 0
KHA2 092317Z 23008KT 18/02 A3011 RMK A01 T01830015  RH  032%=      5-min Rain = 0
KHA2 092318Z 23008KT 18/01 A3011 RMK A01 T01820014  RH  032%=      5-min Rain = 0
KHA2 092319Z 23009KT 18/01 A3011 RMK A01 T01810014  RH  033%=      5-min Rain = 0
KHA2 092320Z 23009KT 18/01 A3011 RMK A01 T01800014  RH  033%=      5-min Rain = 0
KHA2 092321Z 23008KT 18/01 A3011 RMK A01 T01780013  RH  033%=      5-min Rain = 0
KHA2 092322Z 23009KT 18/01 A3011 RMK A01 T01770013  RH  033%=      5-min Rain = 0
KHA2 092323Z 23008KT 18/01 A3011 RMK A01 T01750014  RH  034%=      5-min Rain = 0
KHA2 092324Z 23009KT 17/01 A3011 RMK A01 T01720013  RH  034%=      5-min Rain = 0
KHA2 092325Z 23008KT 17/01 A3011 RMK A01 T01700014  RH  035%=      5-min Rain = 0
KHA2 092326Z 23008KT 17/01 A3011 RMK A01 T01680014  RH  035%=      5-min Rain = 0
KHA2 092327Z 23008KT 17/01 A3011 RMK A01 T01660014  RH  036%=      5-min Rain = 0
KHA2 092328Z 23008KT 17/01 A3011 RMK A01 T01650014  RH  036%=      5-min Rain = 0
KHA2 092329Z 23008KT 16/01 A3011 RMK A01 T01640014  RH  036%=      5-min Rain = 0
KHA2 092330Z 23008KT 16/01 A3011 RMK A01 T01620014  RH  037%=      5-min Rain = 0
KHA2 092331Z 23008KT 16/01 A3011 RMK A01 T01610013  RH  037%=      5-min Rain = 0
KHA2 092332Z 23008KT 16/01 A3011 RMK A01 T01600013  RH  037%=      5-min Rain = 0
KHA2 092333Z 23008KT 16/01 A3011 RMK A01 T01590013  RH  037%=      5-min Rain = 0
KHA2 092334Z 22008KT 16/01 A3011 RMK A01 T01580013  RH  038%=      5-min Rain = 0
KHA2 092335Z 22008KT 16/01 A3011 RMK A01 T01570013  RH  038%=      5-min Rain = 0
KHA2 092336Z 23008KT 16/01 A3011 RMK A01 T01550013  RH  038%=      5-min Rain = 0
KHA2 092337Z 23008KT 15/01 A3011 RMK A01 T01530013  RH  039%=      5-min Rain = 0
KHA2 092338Z 23008KT 15/01 A3011 RMK A01 T01510014  RH  039%=      5-min Rain = 0
KHA2 092339Z 23008KT 15/01 A3011 RMK A01 T01500014  RH  040%=      5-min Rain = 0
KHA2 092340Z 23008KT 15/01 A3011 RMK A01 T01480014  RH  040%=      5-min Rain = 0
KHA2 092341Z 22008KT 15/01 A3011 RMK A01 T01470014  RH  041%=      5-min Rain = 0
KHA2 092342Z 22008KT 15/01 A3011 RMK A01 T01450014  RH  041%=      5-min Rain = 0
KHA2 092343Z 23009KT 14/01 A3011 RMK A01 T01440014  RH  041%=      5-min Rain = 0
KHA2 092344Z 23009KT 14/01 A3011 RMK A01 T01430014  RH  042%=      5-min Rain = 0
KHA2 092345Z 23009KT 14/02 A3011 RMK A01 T01410015  RH  042%=      5-min Rain = 0
KHA2 092346Z 23009KT 14/02 A3011 RMK A01 T01410015  RH  042%=      5-min Rain = 0
KHA2 092347Z 23009KT 14/02 A3011 RMK A01 T01410015  RH  042%=      5-min Rain = 0
KHA2 092348Z 23009KT 14/02 A3011 RMK A01 T01410015  RH  042%=      5-min Rain = 0
KHA2 092349Z 23008KT 14/02 A3011 RMK A01 T01410015  RH  042%=      5-min Rain = 0
KHA2 092350Z 23009KT 14/02 A3011 RMK A01 T01400015  RH  043%=      5-min Rain = 0
KHA2 092351Z 23008KT 14/02 A3011 RMK A01 T01390015  RH  043%=      5-min Rain = 0
KHA2 092352Z 23008KT 14/02 A3011 RMK A01 T01380015  RH  043%=      5-min Rain = 0
KHA2 092353Z 23008KT 14/02 A3011 RMK A01 T01370015  RH  043%=      5-min Rain = 0
KHA2 092354Z 23008KT 14/02 A3011 RMK A01 T01350015  RH  044%=      5-min Rain = 0
KHA2 092355Z 23008KT 14/02 A3011 RMK A01 T01350015  RH  044%=      5-min Rain = 0
KHA2 092356Z 23008KT 13/02 A3011 RMK A01 T01340015  RH  044%=      5-min Rain = 0
KHA2 092357Z 23008KT 13/02 A3011 RMK A01 T01340015  RH  044%=      5-min Rain = 0
KHA2 092358Z 23008KT 13/01 A3011 RMK A01 T01330014  RH  045%=      5-min Rain = 0
KHA2 092359Z 23008KT 13/02 A3011 RMK A01 T01320015  RH  045%=      5-min Rain = 0
KHA2 100000Z 24008KT 13/02 A3011 RMK A01 T01300015  RH  045%=      5-min Rain = 0
KHA2 100001Z 24008KT 13/02 A3011 RMK A01 T01290015  RH  046%=      5-min Rain = 0
KHA2 100002Z 24007KT 13/02 A3011 RMK A01 T01290015  RH  046%=      5-min Rain = 0
KHA2 100003Z 24008KT 13/02 A3011 RMK A01 T01290015  RH  046%=      5-min Rain = 0
KHA2 100004Z 24007KT 13/01 A3011 RMK A01 T01300014  RH  045%=      5-min Rain = 0
KHA2 100005Z 24008KT 13/01 A3011 RMK A01 T01310013  RH  045%=      5-min Rain = 0
KHA2 100006Z 23008KT 13/01 A3011 RMK A01 T01310013  RH  044%=      5-min Rain = 0
KHA2 100007Z 23008KT 13/01 A3011 RMK A01 T01310013  RH  044%=      5-min Rain = 0
KHA2 100008Z 24008KT 13/01 A3011 RMK A01 T01320013  RH  044%=      5-min Rain = 0
KHA2 100009Z 24008KT 13/01 A3011 RMK A01 T01320013  RH  044%=      5-min Rain = 0
KHA2 100010Z 24008KT 13/01 A3011 RMK A01 T01320013  RH  044%=      5-min Rain = 0
KHA2 100011Z 23008KT 13/01 A3011 RMK A01 T01320014  RH  045%=      5-min Rain = 0
KHA2 100012Z 23008KT 13/01 A3011 RMK A01 T01310013  RH  045%=      5-min Rain = 0
KHA2 100013Z 23008KT 13/01 A3011 RMK A01 T01300013  RH  045%=      5-min Rain = 0
KHA2 100014Z 24008KT 13/01 A3011 RMK A01 T01280013  RH  046%=      5-min Rain = 0
KHA2 100015Z 24008KT 13/01 A3011 RMK A01 T01260013  RH  046%=      5-min Rain = 0
KHA2 100016Z 24008KT 13/01 A3011 RMK A01 T01260014  RH  046%=      5-min Rain = 0
KHA2 100017Z 23008KT 13/01 A3011 RMK A01 T01260014  RH  046%=      5-min Rain = 0
KHA2 100018Z 23008KT 13/01 A3011 RMK A01 T01260014  RH  046%=      5-min Rain = 0
KHA2 100019Z 23008KT 13/01 A3011 RMK A01 T01270014  RH  046%=      5-min Rain = 0
KHA2 100020Z 23008KT 13/01 A3011 RMK A01 T01270014  RH  046%=      5-min Rain = 0
KHA2 100021Z 23008KT 13/01 A3011 RMK A01 T01270014  RH  046%=      5-min Rain = 0
KHA2 100022Z 23008KT 13/01 A3011 RMK A01 T01260014  RH  046%=      5-min Rain = 0
KHA2 100023Z 23008KT 13/01 A3011 RMK A01 T01250014  RH  047%=      5-min Rain = 0
KHA2 100024Z 23008KT 12/01 A3011 RMK A01 T01230014  RH  047%=      5-min Rain = 0
KHA2 100025Z 23007KT 12/01 A3011 RMK A01 T01220014  RH  048%=      5-min Rain = 0
KHA2 100026Z 23008KT 12/01 A3011 RMK A01 T01200013  RH  048%=      5-min Rain = 0
KHA2 100027Z 23008KT 12/01 A301 RMK A01 T01200013  RH  048%=      5-min Rain = 0
KHA2 100028Z 23008KT 12/01 A301 RMK A01 T01200013  RH  048%=      5-min Rain = 0
KHA2 100029Z 23008KT 12/01 A301 RMK A01 T01200013  RH  048%=      5-min Rain = 0
KHA2 100030Z 23008KT 12/01 A301 RMK A01 T01190013  RH  048%=      5-min Rain = 0
KHA2 100031Z 23008KT 12/01 A301 RMK A01 T01180012  RH  048%=      5-min Rain = 0
KHA2 100032Z 23008KT 12/01 A301 RMK A01 T01170012  RH  049%=      5-min Rain = 0
KHA2 100033Z 23008KT 12/01 A3011 RMK A01 T01160012  RH  049%=      5-min Rain = 0
KHA2 100034Z 23008KT 11/01 A3011 RMK A01 T01140011  RH  049%=      5-min Rain = 0
KHA2 100035Z 23008KT 11/01 A3011 RMK A01 T01130011  RH  049%=      5-min Rain = 0
KHA2 100036Z 23008KT 11/01 A3011 RMK A01 T01130011  RH  050%=      5-min Rain = 0
KHA2 100037Z 22007KT 11/01 A3011 RMK A01 T01130012  RH  050%=      5-min Rain = 0
KHA2 100038Z 22007KT 11/01 A3011 RMK A01 T01120012  RH  050%=      5-min Rain = 0
KHA2 100039Z 22007KT 11/01 A3011 RMK A01 T01100011  RH  050%=      5-min Rain = 0
KHA2 100040Z 22007KT 11/01 A3011 RMK A01 T01080010  RH  051%=      5-min Rain = 0
KHA2 100041Z 22006KT 11/01 A3011 RMK A01 T01070010  RH  051%=      5-min Rain = 0
KHA2 100042Z 22006KT 11/01 A3011 RMK A01 T01050011  RH  052%=      5-min Rain = 0
KHA2 100043Z 22006KT 11/01 A3011 RMK A01 T01050011  RH  052%=      5-min Rain = 0
KHA2 100044Z 22007KT 11/01 A3011 RMK A01 T01060011  RH  052%=      5-min Rain = 0
KHA2 100045Z 22007KT 11/01 A3011 RMK A01 T01070011  RH  052%=      5-min Rain = 0
KHA2 100046Z 22007KT 11/01 A3011 RMK A01 T01070011  RH  051%=      5-min Rain = 0
KHA2 100047Z 22007KT 11/01 A301 RMK A01 T01090011  RH  051%=      5-min Rain = 0
KHA2 100048Z 22007KT 11/01 A3011 RMK A01 T01100011  RH  050%=      5-min Rain = 0
KHA2 100049Z 22007KT 11/01 A3011 RMK A01 T01090010  RH  051%=      5-min Rain = 0
KHA2 100050Z 22007KT 11/01 A3011 RMK A01 T01070010  RH  051%=      5-min Rain = 0
KHA2 100051Z 22007KT 11/01 A3011 RMK A01 T01070010  RH  051%=      5-min Rain = 0
KHA2 100052Z 22008KT 11/01 A3011 RMK A01 T01070010  RH  051%=      5-min Rain = 0
KHA2 100053Z 22008KT 11/01 A3011 RMK A01 T01060010  RH  051%=      5-min Rain = 0
KHA2 100054Z 22008KT 11/01 A3011 RMK A01 T01050010  RH  052%=      5-min Rain = 0
KHA2 100055Z 22007KT 10/01 A3011 RMK A01 T01030010  RH  052%=      5-min Rain = 0
KHA2 100056Z 22007KT 10/01 A3011 RMK A01 T01020010  RH  053%=      5-min Rain = 0
KHA2 100057Z 22008KT 10/01 A3011 RMK A01 T01030010  RH  052%=      5-min Rain = 0
KHA2 100058Z 22007KT 10/01 A3011 RMK A01 T01030009  RH  052%=      5-min Rain = 0
KHA2 100059Z 22007KT 10/01 A3011 RMK A01 T01030009  RH  052%=      5-min Rain = 0
KHA2 100100Z 21007KT 10/01 A3011 RMK A01 T01020009  RH  052%=      5-min Rain = 0
KHA2 100101Z 21007KT 10/01 A3011 RMK A01 T01000009  RH  053%=      5-min Rain = 0
KHA2 100102Z 21007KT 10/01 A3011 RMK A01 T00980008  RH  053%=      5-min Rain = 0
KHA2 100103Z 21006KT 10/01 A3011 RMK A01 T00970008  RH  054%=      5-min Rain = 0
KHA2 100104Z 21006KT 10/01 A3011 RMK A01 T00950008  RH  054%=      5-min Rain = 0
KHA2 100105Z 21007KT 09/01 A3011 RMK A01 T00940007  RH  055%=      5-min Rain = 0
KHA2 100106Z 21007KT 09/01 A3011 RMK A01 T00930007  RH  055%=      5-min Rain = 0
KHA2 100107Z 21007KT 09/01 A3011 RMK A01 T00940007  RH  055%=      5-min Rain = 0
KHA2 100108Z 21008KT 10/01 A3011 RMK A01 T00950006  RH  054%=      5-min Rain = 0
KHA2 100109Z 21007KT 10/01 A3011 RMK A01 T00950007  RH  054%=      5-min Rain = 0
KHA2 100110Z 21008KT 10/01 A3011 RMK A01 T00960007  RH  054%=      5-min Rain = 0
KHA2 100116Z 22008KT 09/01 A3011 RMK A01 T00910007  RH  056%=      5-min Rain = 0
KHA2 100117Z 22008KT 09/01 A3011 RMK A01 T00900007  RH  056%=      5-min Rain = 0
KHA2 100118Z 21008KT 09/01 A3011 RMK A01 T00890008  RH  057%=      5-min Rain = 0
KHA2 100119Z 21008KT 09/01 A3011 RMK A01 T00890008  RH  057%=      5-min Rain = 0
KHA2 100120Z 21008KT 09/01 A3011 RMK A01 T00890008  RH  057%=      5-min Rain = 0
KHA2 100121Z 21008KT 09/01 A3011 RMK A01 T00900009  RH  057%=      5-min Rain = 0
KHA2 100122Z 22008KT 09/01 A3011 RMK A01 T00910009  RH  056%=      5-min Rain = 0
KHA2 100123Z 22009KT 09/01 A3011 RMK A01 T00930009  RH  056%=      5-min Rain = 0
KHA2 100124Z 22008KT 09/01 A3011 RMK A01 T00940009  RH  056%=      5-min Rain = 0
KHA2 100125Z 22009KT 09/01 A3011 RMK A01 T00940009  RH  055%=      5-min Rain = 0
KHA2 100126Z 22009KT 10/01 A3011 RMK A01 T00950009  RH  055%=      5-min Rain = 0
KHA2 100127Z 22008KT 10/01 A3011 RMK A01 T00950009  RH  055%=      5-min Rain = 0
KHA2 100128Z 22008KT 10/01 A3011 RMK A01 T00950009  RH  055%=      5-min Rain = 0
KHA2 100129Z 22008KT 09/01 A3011 RMK A01 T00940009  RH  055%=      5-min Rain = 0
KHA2 100130Z 22008KT 09/01 A3011 RMK A01 T00940009  RH  055%=      5-min Rain = 0
KHA2 100131Z 22008KT 09/01 A3011 RMK A01 T00930009  RH  056%=      5-min Rain = 0
KHA2 100132Z 22008KT 09/01 A3011 RMK A01 T00930009  RH  056%=      5-min Rain = 0
KHA2 100133Z 22008KT 09/01 A3011 RMK A01 T00930009  RH  056%=      5-min Rain = 0
KHA2 100134Z 22008KT 09/01 A3011 RMK A01 T00930009  RH  056%=      5-min Rain = 0
KHA2 100135Z 22008KT 09/01 A3011 RMK A01 T00910009  RH  056%=      5-min Rain = 0
KHA2 100136Z 22008KT 09/01 A3011 RMK A01 T00910009  RH  056%=      5-min Rain = 0
KHA2 100137Z 22008KT 09/01 A3011 RMK A01 T00910009  RH  056%=      5-min Rain = 0
KHA2 100138Z 22008KT 09/01 A3011 RMK A01 T00910009  RH  056%=      5-min Rain = 0
KHA2 100139Z 22008KT 09/01 A3011 RMK A01 T00910009  RH  056%=      5-min Rain = 0
KHA2 100140Z 22008KT 09/01 A3011 RMK A01 T00920010  RH  056%=      5-min Rain = 0
KHA2 100141Z 22008KT 09/01 A3011 RMK A01 T00930010  RH  056%=      5-min Rain = 0
KHA2 100142Z 22008KT 09/01 A3011 RMK A01 T00930010  RH  056%=      5-min Rain = 0
KHA2 100143Z 22008KT 09/01 A3011 RMK A01 T00930010  RH  056%=      5-min Rain = 0
KHA2 100144Z 22008KT 09/01 A3011 RMK A01 T00930010  RH  056%=      5-min Rain = 0
KHA2 100145Z 22008KT 09/01 A3011 RMK A01 T00910010  RH  057%=      5-min Rain = 0
KHA2 100146Z 22008KT 09/01 A3011 RMK A01 T00900009  RH  057%=      5-min Rain = 0
KHA2 100147Z 22008KT 09/01 A3011 RMK A01 T00890010  RH  058%=      5-min Rain = 0
KHA2 100148Z 22007KT 09/01 A3011 RMK A01 T00870010  RH  058%=      5-min Rain = 0
KHA2 100149Z 22008KT 09/01 A3011 RMK A01 T00870010  RH  059%=      5-min Rain = 0
KHA2 100150Z 22007KT 09/01 A3011 RMK A01 T00860010  RH  059%=      5-min Rain = 0
KHA2 100151Z 22008KT 09/01 A3011 RMK A01 T00860011  RH  059%=      5-min Rain = 0
KHA2 100152Z 22008KT 09/01 A3011 RMK A01 T00860011  RH  059%=      5-min Rain = 0
KHA2 100153Z 22008KT 09/01 A3011 RMK A01 T00850011  RH  059%=      5-min Rain = 0
KHA2 100154Z 22008KT 08/01 A3011 RMK A01 T00840011  RH  060%=      5-min Rain = 0
KHA2 100155Z 22008KT 08/01 A3011 RMK A01 T00830011  RH  060%=      5-min Rain = 0
KHA2 100156Z 22008KT 08/01 A3011 RMK A01 T00830011  RH  060%=      5-min Rain = 0
KHA2 100157Z 22008KT 08/01 A3011 RMK A01 T00830011  RH  061%=      5-min Rain = 0
KHA2 100158Z 22008KT 08/01 A3011 RMK A01 T00820011  RH  061%=      5-min Rain = 0
KHA2 100159Z 22008KT 08/01 A3011 RMK A01 T00810011  RH  061%=      5-min Rain = 0
KHA2 100200Z 22008KT 08/01 A3011 RMK A01 T00800011  RH  061%=      5-min Rain = 0
KHA2 100201Z 22008KT 08/01 A3011 RMK A01 T00800011  RH  062%=      5-min Rain = 0
KHA2 100202Z 22008KT 08/01 A3011 RMK A01 T00790011  RH  062%=      5-min Rain = 0
KHA2 100203Z 22008KT 08/01 A3011 RMK A01 T00780011  RH  063%=      5-min Rain = 0
KHA2 100204Z 22008KT 08/01 A3011 RMK A01 T00780011  RH  063%=      5-min Rain = 0
KHA2 100205Z 22008KT 08/01 A3011 RMK A01 T00760010  RH  063%=      5-min Rain = 0
KHA2 100206Z 22008KT 08/01 A3011 RMK A01 T00750011  RH  063%=      5-min Rain = 0
KHA2 100207Z 22008KT 08/01 A3011 RMK A01 T00750011  RH  064%=      5-min Rain = 0
KHA2 100208Z 22007KT 07/01 A3011 RMK A01 T00740010  RH  064%=      5-min Rain = 0
KHA2 100209Z 22008KT 07/01 A3011 RMK A01 T00740011  RH  064%=      5-min Rain = 0
KHA2 100210Z 22008KT 07/01 A3011 RMK A01 T00730011  RH  064%=      5-min Rain = 0
KHA2 100211Z 22008KT 07/01 A3011 RMK A01 T00730011  RH  064%=      5-min Rain = 0
KHA2 100212Z 22008KT 07/01 A3011 RMK A01 T00730010  RH  064%=      5-min Rain = 0
KHA2 100213Z 22008KT 07/01 A3011 RMK A01 T00730011  RH  065%=      5-min Rain = 0
KHA2 100214Z 22008KT 07/01 A3011 RMK A01 T00730010  RH  065%=      5-min Rain = 0
KHA2 100215Z 22008KT 07/01 A3011 RMK A01 T00710010  RH  065%=      5-min Rain = 0
KHA2 100216Z 22008KT 07/01 A3011 RMK A01 T00710011  RH  066%=      5-min Rain = 0
KHA2 100217Z 23007KT 07/01 A3011 RMK A01 T00720011  RH  066%=      5-min Rain = 0
KHA2 100218Z 23007KT 07/01 A3011 RMK A01 T00720011  RH  065%=      5-min Rain = 0
KHA2 100219Z 23007KT 07/01 A3011 RMK A01 T00710011  RH  066%=      5-min Rain = 0
KHA2 100220Z 22007KT 07/01 A3011 RMK A01 T00710012  RH  066%=      5-min Rain = 0
KHA2 100221Z 22007KT 07/01 A3011 RMK A01 T00710011  RH  066%=      5-min Rain = 0
KHA2 100222Z 23007KT 07/01 A3011 RMK A01 T00710012  RH  066%=      5-min Rain = 0
KHA2 100223Z 22007KT 07/01 A3011 RMK A01 T00710012  RH  066%=      5-min Rain = 0
KHA2 100224Z 22007KT 07/01 A3011 RMK A01 T00700012  RH  066%=      5-min Rain = 0
KHA2 100225Z 22007KT 07/01 A3011 RMK A01 T00690012  RH  067%=      5-min Rain = 0
KHA2 100226Z 23007KT 07/01 A3011 RMK A01 T00680012  RH  067%=      5-min Rain = 0
KHA2 100227Z 23008KT 07/01 A3011 RMK A01 T00680012  RH  067%=      5-min Rain = 0
KHA2 100228Z 23008KT 07/01 A3011 RMK A01 T00680012  RH  068%=      5-min Rain = 0
KHA2 100229Z 23008KT 07/01 A3011 RMK A01 T00680012  RH  068%=      5-min Rain = 0
KHA2 100230Z 22008KT 07/01 A3011 RMK A01 T00690013  RH  067%=      5-min Rain = 0
KHA2 100231Z 22008KT 07/01 A3011 RMK A01 T00690013  RH  067%=      5-min Rain = 0
KHA2 100232Z 23008KT 07/01 A301 RMK A01 T00700013  RH  067%=      5-min Rain = 0
KHA2 100233Z 23009KT 07/01 A3011 RMK A01 T00690012  RH  067%=      5-min Rain = 0
KHA2 100234Z 23009KT 07/01 A301 RMK A01 T00680012  RH  068%=      5-min Rain = 0
KHA2 100235Z 23009KT 07/01 A301 RMK A01 T00680013  RH  068%=      5-min Rain = 0
KHA2 100236Z 23009KT 07/01 A301 RMK A01 T00680014  RH  068%=      5-min Rain = 0
KHA2 100237Z 23008KT 07/02 A301 RMK A01 T00690015  RH  068%=      5-min Rain = 0
KHA2 100238Z 23008KT 07/02 A301 RMK A01 T00710016  RH  068%=      5-min Rain = 0
KHA2 100239Z 23008KT 07/02 A301 RMK A01 T00740017  RH  067%=      5-min Rain = 0
KHA2 100240Z 23008KT 08/02 A301 RMK A01 T00750017  RH  067%=      5-min Rain = 0
KHA2 100241Z 23008KT 08/02 A301 RMK A01 T00750017  RH  066%=      5-min Rain = 0
KHA2 100242Z 23008KT 08/02 A301 RMK A01 T00750016  RH  066%=      5-min Rain = 0
KHA2 100243Z 23007KT 08/02 A301 RMK A01 T00750016  RH  066%=      5-min Rain = 0
KHA2 100244Z 23006KT 07/02 A301 RMK A01 T00740016  RH  066%=      5-min Rain = 0
KHA2 100245Z 23006KT 07/02 A301 RMK A01 T00730015  RH  067%=      5-min Rain = 0
KHA2 100246Z 22006KT 07/02 A301 RMK A01 T00720015  RH  067%=      5-min Rain = 0
KHA2 100247Z 22005KT 07/02 A301 RMK A01 T00720015  RH  067%=      5-min Rain = 0
KHA2 100248Z 22006KT 07/02 A301 RMK A01 T00720015  RH  067%=      5-min Rain = 0
KHA2 100249Z 23006KT 07/01 A301 RMK A01 T00720014  RH  066%=      5-min Rain = 0
KHA2 100250Z 23007KT 07/01 A301 RMK A01 T00730014  RH  066%=      5-min Rain = 0
KHA2 100251Z 23007KT 07/01 A301 RMK A01 T00730014  RH  066%=      5-min Rain = 0
KHA2 100252Z 24007KT 07/01 A301 RMK A01 T00740014  RH  066%=      5-min Rain = 0
KHA2 100253Z 23007KT 08/01 A301 RMK A01 T00750014  RH  065%=      5-min Rain = 0
KHA2 100254Z 23006KT 08/01 A301 RMK A01 T00750014  RH  065%=      5-min Rain = 0
KHA2 100255Z 22006KT 08/01 A301 RMK A01 T00750014  RH  065%=      5-min Rain = 0
KHA2 100256Z 22006KT 07/01 A301 RMK A01 T00740012  RH  065%=      5-min Rain = 0
KHA2 100257Z 22006KT 07/01 A301 RMK A01 T00730012  RH  065%=      5-min Rain = 0
KHA2 100258Z 22006KT 07/01 A301 RMK A01 T00720012  RH  066%=      5-min Rain = 0
KHA2 100259Z 22007KT 07/01 A301 RMK A01 T00720012  RH  066%=      5-min Rain = 0
KHA2 100300Z 22007KT 07/01 A301 RMK A01 T00710012  RH  066%=      5-min Rain = 0
KHA2 100301Z 22007KT 07/01 A301 RMK A01 T00700011  RH  066%=      5-min Rain = 0
KHA2 100302Z 22007KT 07/01 A301 RMK A01 T00680010  RH  067%=      5-min Rain = 0
KHA2 100303Z 22007KT 07/01 A301 RMK A01 T00670011  RH  067%=      5-min Rain = 0
KHA2 100304Z 23008KT 07/01 A301 RMK A01 T00660010  RH  068%=      5-min Rain = 0
KHA2 100305Z 23008KT 07/01 A301 RMK A01 T00660011  RH  068%=      5-min Rain = 0
KHA2 100306Z 23008KT 07/01 A301 RMK A01 T00650011  RH  068%=      5-min Rain = 0
KHA2 100307Z 23008KT 06/01 A301 RMK A01 T00640011  RH  069%=      5-min Rain = 0
KHA2 100308Z 23007KT 06/01 A301 RMK A01 T00630011  RH  069%=      5-min Rain = 0
KHA2 100309Z 24007KT 06/01 A301 RMK A01 T00630011  RH  069%=      5-min Rain = 0
KHA2 100310Z 24006KT 06/01 A301 RMK A01 T00630011  RH  070%=      5-min Rain = 0
KHA2 100311Z 24006KT 06/01 A301 RMK A01 T00620011  RH  070%=      5-min Rain = 0
KHA2 100312Z 25006KT 06/01 A301 RMK A01 T00620011  RH  070%=      5-min Rain = 0
KHA2 100313Z 25006KT 06/01 A301 RMK A01 T00620011  RH  070%=      5-min Rain = 0
KHA2 100314Z 25006KT 06/01 A301 RMK A01 T00630012  RH  070%=      5-min Rain = 0
KHA2 100315Z 25006KT 06/01 A301 RMK A01 T00640012  RH  069%=      5-min Rain = 0
KHA2 100316Z 25007KT 07/01 A301 RMK A01 T00650013  RH  069%=      5-min Rain = 0
KHA2 100317Z 25008KT 07/01 A301 RMK A01 T00660013  RH  069%=      5-min Rain = 0
KHA2 100318Z 25008KT 07/01 A301 RMK A01 T00680014  RH  068%=      5-min Rain = 0
KHA2 100319Z 25007KT 07/01 A301 RMK A01 T00690014  RH  068%=      5-min Rain = 0
KHA2 100320Z 25007KT 07/01 A301 RMK A01 T00700014  RH  068%=      5-min Rain = 0
KHA2 100321Z 25008KT 07/01 A301 RMK A01 T00710014  RH  067%=      5-min Rain = 0
KHA2 100322Z 25007KT 07/01 A301 RMK A01 T00720014  RH  067%=      5-min Rain = 0
KHA2 100323Z 25007KT 07/01 A301 RMK A01 T00720014  RH  067%=      5-min Rain = 0
KHA2 100324Z 25007KT 07/01 A301 RMK A01 T00720014  RH  067%=      5-min Rain = 0
KHA2 100325Z 25008KT 07/01 A301 RMK A01 T00720014  RH  067%=      5-min Rain = 0
KHA2 100326Z 25008KT 07/01 A301 RMK A01 T00720014  RH  067%=      5-min Rain = 0
KHA2 100327Z 25008KT 07/01 A301 RMK A01 T00720014  RH  067%=      5-min Rain = 0
KHA2 100328Z 25008KT 07/01 A301 RMK A01 T00720013  RH  066%=      5-min Rain = 0
KHA2 100329Z 25008KT 07/01 A301 RMK A01 T00720014  RH  066%=      5-min Rain = 0
KHA2 100330Z 25008KT 07/01 A301 RMK A01 T00720014  RH  067%=      5-min Rain = 0
KHA2 100331Z 24009KT 07/01 A301 RMK A01 T00710013  RH  067%=      5-min Rain = 0
KHA2 100332Z 24008KT 07/01 A301 RMK A01 T00710013  RH  067%=      5-min Rain = 0
KHA2 100333Z 24008KT 07/01 A301 RMK A01 T00710013  RH  067%=      5-min Rain = 0
KHA2 100334Z 25008KT 07/01 A301 RMK A01 T00710014  RH  067%=      5-min Rain = 0
KHA2 100335Z 25008KT 07/01 A301 RMK A01 T00710013  RH  067%=      5-min Rain = 0
KHA2 100336Z 24008KT 07/01 A301 RMK A01 T00710014  RH  067%=      5-min Rain = 0
KHA2 100337Z 24008KT 07/01 A301 RMK A01 T00710013  RH  067%=      5-min Rain = 0
KHA2 100338Z 24008KT 07/01 A301 RMK A01 T00720014  RH  067%=      5-min Rain = 0
KHA2 100339Z 24007KT 07/01 A301 RMK A01 T00720014  RH  067%=      5-min Rain = 0
KHA2 100340Z 21009KT 07/01 A301 RMK A01 T00710013  RH  067%=      5-min Rain = 0
KHA2 100341Z 22007KT 07/01 A301 RMK A01 T00660011  RH  068%=      5-min Rain = 0
KHA2 100342Z 22008G13KT 06/01 A301 RMK A01 T00620011  RH  070%=      5-min Rain = 0
KHA2 100343Z 21010KT 06/01 A3011 RMK A01 T00640014  RH  070%=      5-min Rain = 0
KHA2 100344Z 20010KT 07/02 A301 RMK A01 T00680015  RH  069%=      5-min Rain = 0
KHA2 100345Z 21010KT 07/01 A3011 RMK A01 T00700014  RH  067%=      5-min Rain = 0
KHA2 100346Z 22008KT 07/01 A301 RMK A01 T00700013  RH  067%=      5-min Rain = 0
KHA2 100347Z 23009KT 07/01 A301 RMK A01 T00700013  RH  067%=      5-min Rain = 0
KHA2 100348Z 23009KT 07/01 A301 RMK A01 T00690012  RH  067%=      5-min Rain = 0
KHA2 100349Z 21010KT 07/01 A3011 RMK A01 T00690012  RH  067%=      5-min Rain = 0
KHA2 100350Z 20008KT 07/01 A301 RMK A01 T00670011  RH  068%=      5-min Rain = 0
KHA2 100351Z 22008KT 07/01 A301 RMK A01 T00650011  RH  068%=      5-min Rain = 0
KHA2 100352Z 23008KT 06/01 A301 RMK A01 T00630010  RH  069%=      5-min Rain = 0
KHA2 100353Z 23008KT 06/01 A301 RMK A01 T00620010  RH  070%=      5-min Rain = 0
KHA2 100354Z 23009KT 06/01 A301 RMK A01 T00610010  RH  070%=      5-min Rain = 0
KHA2 100355Z 24009KT 06/01 A301 RMK A01 T00610010  RH  070%=      5-min Rain = 0
KHA2 100356Z 24008KT 06/01 A301 RMK A01 T00600010  RH  070%=      5-min Rain = 0
KHA2 100357Z 24009KT 06/01 A301 RMK A01 T00600010  RH  070%=      5-min Rain = 0
KHA2 100358Z 23008KT 06/01 A301 RMK A01 T00610011  RH  070%=      5-min Rain = 0
KHA2 100359Z 23008KT 06/01 A301 RMK A01 T00610011  RH  070%=      5-min Rain = 0
KHA2 100400Z 24008KT 06/01 A301 RMK A01 T00610011  RH  070%=      5-min Rain = 0
KHA2 100401Z 24008KT 06/01 A301 RMK A01 T00610011  RH  070%=      5-min Rain = 0
KHA2 100402Z 24008KT 06/01 A301 RMK A01 T00600010  RH  070%=      5-min Rain = 0
KHA2 100403Z 24008KT 06/01 A301 RMK A01 T00590010  RH  071%=      5-min Rain = 0
KHA2 100404Z 24008KT 06/01 A301 RMK A01 T00580010  RH  071%=      5-min Rain = 0
KHA2 100405Z 24008KT 06/01 A301 RMK A01 T00580010  RH  071%=      5-min Rain = 0
KHA2 100406Z 24008KT 06/01 A301 RMK A01 T00580011  RH  071%=      5-min Rain = 0
KHA2 100407Z 24008KT 06/01 A301 RMK A01 T00580011  RH  071%=      5-min Rain = 0
KHA2 100408Z 24008KT 06/01 A301 RMK A01 T00590011  RH  071%=      5-min Rain = 0
KHA2 100409Z 24008KT 06/01 A301 RMK A01 T00600012  RH  071%=      5-min Rain = 0
KHA2 100410Z 24008KT 06/01 A301 RMK A01 T00610012  RH  071%=      5-min Rain = 0
KHA2 100411Z 25008KT 06/01 A301 RMK A01 T00610012  RH  071%=      5-min Rain = 0
KHA2 100412Z 24008KT 06/01 A301 RMK A01 T00620012  RH  071%=      5-min Rain = 0
KHA2 100413Z 25008KT 06/01 A301 RMK A01 T00630012  RH  070%=      5-min Rain = 0
KHA2 100414Z 25008KT 06/01 A301 RMK A01 T00630012  RH  070%=      5-min Rain = 0
KHA2 100415Z 25007KT 06/01 A301 RMK A01 T00630012  RH  070%=      5-min Rain = 0
KHA2 100416Z 25008KT 06/01 A301 RMK A01 T00630012  RH  070%=      5-min Rain = 0
KHA2 100417Z 25008KT 06/01 A301 RMK A01 T00620012  RH  070%=      5-min Rain = 0
KHA2 100418Z 25008KT 06/01 A301 RMK A01 T00620013  RH  070%=      5-min Rain = 0
KHA2 100419Z 25008KT 06/01 A301 RMK A01 T00620012  RH  070%=      5-min Rain = 0
KHA2 100420Z 25008KT 06/01 A301 RMK A01 T00610012  RH  071%=      5-min Rain = 0
KHA2 100421Z 26008KT 06/01 A301 RMK A01 T00610012  RH  071%=      5-min Rain = 0
KHA2 100422Z 26008KT 06/01 A301 RMK A01 T00610012  RH  071%=      5-min Rain = 0
KHA2 100423Z 26009KT 06/01 A301 RMK A01 T00620012  RH  070%=      5-min Rain = 0
KHA2 100424Z 26009KT 06/01 A301 RMK A01 T00620012  RH  070%=      5-min Rain = 0
KHA2 100425Z 25008KT 06/01 A301 RMK A01 T00630013  RH  070%=      5-min Rain = 0
KHA2 100426Z 25009KT 06/01 A301 RMK A01 T00640013  RH  070%=      5-min Rain = 0
KHA2 100427Z 25009KT 06/01 A301 RMK A01 T00640012  RH  070%=      5-min Rain = 0
KHA2 100428Z 25008KT 06/01 A301 RMK A01 T00640012  RH  070%=      5-min Rain = 0
KHA2 100429Z 25009KT 06/01 A301 RMK A01 T00640012  RH  069%=      5-min Rain = 0
KHA2 100430Z 25008KT 07/01 A301 RMK A01 T00650013  RH  069%=      5-min Rain = 0
KHA2 100431Z 25009KT 06/01 A301 RMK A01 T00630012  RH  070%=      5-min Rain = 0
KHA2 100432Z 25008KT 06/01 A301 RMK A01 T00630012  RH  070%=      5-min Rain = 0
KHA2 100433Z 25008KT 06/01 A301 RMK A01 T00620012  RH  070%=      5-min Rain = 0
KHA2 100434Z 25008KT 06/01 A301 RMK A01 T00620012  RH  070%=      5-min Rain = 0
KHA2 100435Z 26008KT 06/01 A301 RMK A01 T00620013  RH  071%=      5-min Rain = 0
KHA2 100436Z 26008KT 06/01 A301 RMK A01 T00620013  RH  071%=      5-min Rain = 0
KHA2 100437Z 26009KT 06/01 A301 RMK A01 T00630013  RH  070%=      5-min Rain = 0
KHA2 100438Z 25009KT 06/01 A301 RMK A01 T00640014  RH  070%=      5-min Rain = 0
KHA2 100439Z 25009KT 07/01 A301 RMK A01 T00650014  RH  070%=      5-min Rain = 0
KHA2 100440Z 25009KT 07/01 A301 RMK A01 T00660014  RH  069%=      5-min Rain = 0
KHA2 100441Z 25008KT 07/01 A301 RMK A01 T00660013  RH  069%=      5-min Rain = 0
KHA2 100442Z 25009KT 07/01 A301 RMK A01 T00660013  RH  069%=      5-min Rain = 0
KHA2 100443Z 25008KT 07/01 A301 RMK A01 T00650013  RH  069%=      5-min Rain = 0
KHA2 100444Z 25008KT 06/01 A301 RMK A01 T00640013  RH  070%=      5-min Rain = 0
KHA2 100445Z 25008KT 06/01 A301 RMK A01 T00630013  RH  070%=      5-min Rain = 0
KHA2 100446Z 25008KT 06/01 A301 RMK A01 T00630013  RH  070%=      5-min Rain = 0
KHA2 100447Z 25008KT 06/01 A301 RMK A01 T00630013  RH  070%=      5-min Rain = 0
KHA2 100448Z 25008KT 06/01 A301 RMK A01 T00620013  RH  071%=      5-min Rain = 0
KHA2 100449Z 25008KT 06/01 A301 RMK A01 T00610013  RH  071%=      5-min Rain = 0
KHA2 100450Z 25008KT 06/01 A301 RMK A01 T00610013  RH  071%=      5-min Rain = 0
KHA2 100451Z 25008KT 06/01 A301 RMK A01 T00610013  RH  072%=      5-min Rain = 0
KHA2 100452Z 25009KT 06/01 A301 RMK A01 T00610013  RH  071%=      5-min Rain = 0
KHA2 100453Z 25008KT 06/01 A301 RMK A01 T00610014  RH  071%=      5-min Rain = 0
KHA2 100454Z 25008KT 06/01 A301 RMK A01 T00620014  RH  071%=      5-min Rain = 0
KHA2 100455Z 26008KT 06/01 A301 RMK A01 T00630014  RH  071%=      5-min Rain = 0
KHA2 100456Z 25008KT 06/01 A301 RMK A01 T00630014  RH  071%=      5-min Rain = 0
KHA2 100457Z 25008KT 06/01 A301 RMK A01 T00630014  RH  071%=      5-min Rain = 0
KHA2 100458Z 25008KT 06/01 A301 RMK A01 T00630014  RH  071%=      5-min Rain = 0
KHA2 100459Z 25008KT 06/01 A301 RMK A01 T00630014  RH  071%=      5-min Rain = 0
KHA2 100500Z 26008KT 06/01 A301 RMK A01 T00630014  RH  071%=      5-min Rain = 0
KHA2 100501Z 25007KT 06/01 A301 RMK A01 T00620014  RH  071%=      5-min Rain = 0
KHA2 100502Z 26008KT 06/01 A301 RMK A01 T00620014  RH  071%=      5-min Rain = 0
KHA2 100503Z 25007KT 06/01 A301 RMK A01 T00620014  RH  072%=      5-min Rain = 0
KHA2 100504Z 26008KT 06/01 A301 RMK A01 T00620014  RH  072%=      5-min Rain = 0
KHA2 100505Z 25008KT 06/01 A301 RMK A01 T00610014  RH  072%=      5-min Rain = 0
KHA2 100506Z 25008KT 06/01 A301 RMK A01 T00610014  RH  072%=      5-min Rain = 0
KHA2 100507Z 26008KT 06/01 A301 RMK A01 T00610014  RH  072%=      5-min Rain = 0
KHA2 100508Z 25008KT 06/01 A301 RMK A01 T00610014  RH  072%=      5-min Rain = 0
KHA2 100509Z 25007KT 06/01 A301 RMK A01 T00610014  RH  072%=      5-min Rain = 0
KHA2 100510Z 26008KT 06/01 A301 RMK A01 T00610014  RH  072%=      5-min Rain = 0
KHA2 100511Z 26008KT 06/01 A301 RMK A01 T00610014  RH  072%=      5-min Rain = 0
KHA2 100512Z 26007KT 06/01 A301 RMK A01 T00610014  RH  072%=      5-min Rain = 0
KHA2 100513Z 26007KT 06/01 A301 RMK A01 T00600014  RH  072%=      5-min Rain = 0
KHA2 100514Z 27007KT 06/01 A301 RMK A01 T00600013  RH  072%=      5-min Rain = 0
KHA2 100515Z 26008KT 06/01 A3009 RMK A01 T00590013  RH  072%=      5-min Rain = 0
KHA2 100516Z 26007KT 06/01 A3009 RMK A01 T00590013  RH  072%=      5-min Rain = 0
KHA2 100517Z 26007KT 06/01 A3009 RMK A01 T00600013  RH  072%=      5-min Rain = 0
KHA2 100518Z 26008KT 06/01 A3009 RMK A01 T00590013  RH  072%=      5-min Rain = 0
KHA2 100519Z 26008KT 06/01 A3009 RMK A01 T00600013  RH  072%=      5-min Rain = 0
KHA2 100520Z 26008KT 06/01 A3009 RMK A01 T00610013  RH  072%=      5-min Rain = 0
KHA2 100521Z 26008KT 06/01 A3009 RMK A01 T00610013  RH  071%=      5-min Rain = 0
KHA2 100522Z 26009KT 06/01 A3009 RMK A01 T00620013  RH  071%=      5-min Rain = 0
KHA2 100523Z 26008KT 06/01 A3009 RMK A01 T00620013  RH  071%=      5-min Rain = 0
KHA2 100524Z 26009KT 06/01 A3009 RMK A01 T00620012  RH  070%=      5-min Rain = 0
KHA2 100525Z 26008KT 06/01 A3009 RMK A01 T00620013  RH  070%=      5-min Rain = 0
KHA2 100526Z 26008KT 06/01 A3009 RMK A01 T00620012  RH  070%=      5-min Rain = 0
KHA2 100527Z 26008KT 06/01 A3009 RMK A01 T00630012  RH  070%=      5-min Rain = 0
KHA2 100528Z 26009KT 06/01 A3009 RMK A01 T00620012  RH  070%=      5-min Rain = 0
KHA2 100529Z 26009KT 06/01 A3009 RMK A01 T00610012  RH  071%=      5-min Rain = 0
KHA2 100530Z 27008KT 06/01 A3009 RMK A01 T00620012  RH  070%=      5-min Rain = 0
KHA2 100531Z 27009KT 06/01 A3009 RMK A01 T00620012  RH  070%=      5-min Rain = 0
KHA2 100532Z 27009KT 06/01 A3009 RMK A01 T00620012  RH  070%=      5-min Rain = 0
KHA2 100533Z 27009KT 06/01 A3009 RMK A01 T00620012  RH  070%=      5-min Rain = 0
KHA2 100534Z 27009KT 06/01 A3009 RMK A01 T00620012  RH  070%=      5-min Rain = 0
KHA2 100535Z 27009KT 06/01 A3009 RMK A01 T00620012  RH  070%=      5-min Rain = 0
KHA2 100536Z 27009KT 06/01 A3009 RMK A01 T00620011  RH  070%=      5-min Rain = 0
KHA2 100537Z 26010KT 06/01 A3009 RMK A01 T00630012  RH  070%=      5-min Rain = 0
KHA2 100538Z 26011KT 06/01 A3009 RMK A01 T00640012  RH  069%=      5-min Rain = 0
KHA2 100539Z 26010KT 07/01 A3009 RMK A01 T00660012  RH  069%=      5-min Rain = 0
KHA2 100540Z 26010KT 07/01 A3009 RMK A01 T00670012  RH  068%=      5-min Rain = 0
KHA2 100541Z 26010KT 07/01 A3009 RMK A01 T00690012  RH  067%=      5-min Rain = 0
KHA2 100542Z 26010KT 07/01 A3009 RMK A01 T00690012  RH  067%=      5-min Rain = 0
KHA2 100543Z 26009KT 07/01 A3009 RMK A01 T00700012  RH  067%=      5-min Rain = 0
KHA2 100544Z 26011KT 07/01 A3009 RMK A01 T00720014  RH  066%=      5-min Rain = 0
KHA2 100545Z 26010KT 08/02 A3009 RMK A01 T00760015  RH  065%=      5-min Rain = 0
KHA2 100546Z 26010KT 08/02 A3009 RMK A01 T00780015  RH  064%=      5-min Rain = 0
KHA2 100547Z 26010KT 08/02 A3009 RMK A01 T00790015  RH  064%=      5-min Rain = 0
KHA2 100548Z 26010KT 08/02 A3009 RMK A01 T00790015  RH  064%=      5-min Rain = 0
KHA2 100549Z 26011KT 08/02 A3009 RMK A01 T00790015  RH  064%=      5-min Rain = 0
KHA2 100550Z 26010KT 08/02 A3009 RMK A01 T00800015  RH  063%=      5-min Rain = 0
KHA2 100551Z 26010KT 08/01 A3009 RMK A01 T00800014  RH  063%=      5-min Rain = 0
KHA2 100552Z 26010KT 08/01 A3009 RMK A01 T00780013  RH  063%=      5-min Rain = 0
KHA2 100553Z 26010KT 08/01 A3009 RMK A01 T00760013  RH  064%=      5-min Rain = 0
KHA2 100554Z 26010KT 08/01 A3009 RMK A01 T00760013  RH  064%=      5-min Rain = 0
KHA2 100555Z 26010KT 07/01 A3009 RMK A01 T00740012  RH  065%=      5-min Rain = 0
KHA2 100556Z 26009KT 07/01 A3009 RMK A01 T00720012  RH  065%=      5-min Rain = 0
KHA2 100557Z 26010KT 07/01 A3009 RMK A01 T00700011  RH  066%=      5-min Rain = 0
KHA2 100558Z 26010KT 07/01 A3009 RMK A01 T00690011  RH  067%=      5-min Rain = 0
KHA2 100559Z 26009KT 07/01 A3009 RMK A01 T00680011  RH  067%=      5-min Rain = 0

Page generated in 0.0713 seconds.